GFSMW_850_rhum_000.txt.gz
RH
34 37 36 39 43 46 44 49 63 81 82 95 98 98 99 99 94 83 35 30 35 35 34 35 41 41 40 33 30 28 25 22 19 18 17 13 11 20 32 8 10 7 8
39 39 39 44 48 50 56 56 74 84 87 88 98 99 95 86 59 30 34 37 36 37 41 46 50 48 42 33 28 25 21 19 15 15 16 20 14 24 11 21 10 16 12
36 40 45 54 58 62 71 74 85 84 94 100 100 97 80 44 31 36 37 38 39 45 50 52 51 46 36 30 24 21 18 17 16 12 16 34 42 29 24 14 21 14 14
41 48 56 64 65 74 86 90 93 98 96 93 88 72 51 31 36 38 38 38 46 51 53 52 50 41 32 26 21 16 16 16 14 9 13 20 28 39 37 25 14 25 16
40 48 58 64 71 77 85 88 87 89 83 65 60 42 30 34 38 38 38 44 50 52 52 50 47 38 30 24 20 19 17 12 10 14 17 19 21 26 39 44 39 27 18
47 54 65 73 77 83 84 88 89 78 68 54 40 32 32 35 36 38 43 48 51 52 50 48 44 35 28 25 22 17 10 9 14 19 21 23 25 27 31 39 44 45 39
49 59 64 68 78 82 81 74 71 59 51 45 37 34 36 38 39 42 47 51 52 50 49 48 42 33 28 22 15 9 9 13 17 20 20 19 20 25 31 34 32 38 45
54 61 60 59 54 59 58 54 54 52 53 48 36 36 40 41 43 47 51 51 51 50 50 47 39 32 25 14 8 9 13 18 19 17 15 17 18 23 28 32 32 46 50
56 56 57 56 53 54 53 53 53 49 47 40 37 38 41 43 47 50 52 52 52 52 52 48 39 28 14 8 9 14 19 18 16 14 17 20 24 29 30 32 34 54 74
66 58 56 55 52 51 50 50 44 38 39 39 38 40 43 46 51 53 54 53 54 55 53 45 33 17 9 9 17 21 18 17 16 20 24 28 36 39 35 32 38 54 66
62 57 57 53 47 45 43 42 41 39 39 40 41 43 46 50 54 55 55 56 58 56 50 37 20 10 10 20 22 19 19 21 21 24 36 44 51 50 42 51 73 78 78
59 56 56 53 50 47 47 45 45 43 42 42 44 46 50 54 56 56 57 61 60 53 40 21 11 13 23 23 20 22 23 23 26 38 52 59 60 53 52 70 83 83 81
60 58 58 55 51 51 51 52 50 48 46 45 46 49 52 55 56 58 63 63 57 42 22 13 17 25 24 22 24 25 25 26 36 55 61 62 61 60 64 81 83 96 98
56 58 60 59 56 55 56 57 55 52 50 48 48 50 53 56 57 64 66 60 46 26 15 20 28 28 25 27 27 25 24 34 50 58 59 61 67 68 86 85 95 88 74
60 57 58 60 60 60 62 62 60 57 53 51 49 51 55 57 65 66 61 49 28 17 22 30 31 29 30 31 27 30 47 52 53 56 60 68 75 79 88 88 91 93 96
58 57 58 61 63 64 64 64 62 60 58 55 51 53 56 65 66 61 52 33 20 20 30 34 34 34 34 30 27 41 53 54 59 64 72 75 76 79 88 88 87 91 97
56 56 56 59 63 65 64 63 64 63 60 55 53 56 65 66 59 53 38 21 19 28 36 38 37 37 33 28 30 50 61 66 70 74 77 82 81 87 81 81 95 94 95
57 58 58 61 64 65 65 65 64 62 59 56 56 67 67 59 55 42 23 19 23 36 39 40 39 35 30 29 30 45 65 68 70 76 81 85 82 67 90 93 96 96 84
53 53 57 62 65 66 65 64 63 63 61 58 70 69 64 58 48 26 19 20 33 37 41 41 37 31 29 32 39 87 81 81 75 73 76 79 63 91 91 97 96 91 78
56 58 63 65 64 64 64 65 65 62 62 73 72 68 62 55 31 21 17 30 37 41 43 40 31 29 28 35 50 93 92 86 80 82 83 74 91 97 96 97 93 81 78
61 63 64 64 65 66 67 67 66 67 74 76 71 65 57 32 24 16 24 34 41 45 42 32 25 22 34 51 66 94 94 93 93 92 90 78 97 97 89 88 89 94 95
64 65 65 66 66 68 70 68 68 76 79 75 68 58 35 27 17 18 29 40 46 43 33 24 21 31 45 62 66 96 93 95 96 97 85 94 99 94 92 94 96 98 98
51 56 50 57 64 65 66 68 76 82 78 70 64 42 30 19 17 29 40 46 44 34 25 30 45 51 59 66 78 94 95 86 90 89 97 97 96 92 77 88 100 100 93
45 48 48 53 59 64 68 78 84 82 71 65 46 33 21 16 28 41 47 44 35 27 31 49 63 71 76 82 92 98 81 92 97 97 97 86 74 80 86 79 80 90 100
50 53 55 60 65 71 78 84 82 71 64 47 35 23 19 27 39 47 45 37 28 32 62 70 83 88 92 95 93 90 96 95 94 94 86 74 80 77 81 82 87 90 98
57 61 65 68 72 78 84 81 71 62 46 35 25 23 30 43 49 44 35 27 27 28 35 40 73 82 95 94 94 93 95 96 97 94 86 93 93 97 94 95 94 91 95

GFSMW_850_rhum_006.txt.gz
RH
39 35 34 32 33 32 31 33 42 71 80 85 96 98 98 100 100 100 100 92 83 32 36 39 45 45 39 29 22 23 24 24 24 21 17 13 12 14 11 22 30 12 13
40 38 38 34 34 38 35 39 54 78 78 88 98 95 91 93 94 98 88 66 33 37 41 48 49 46 41 33 25 24 26 26 22 16 15 14 13 14 17 10 12 10 9
40 36 37 34 36 44 37 45 64 90 87 99 99 98 92 90 95 87 70 35 38 41 50 51 51 48 45 39 30 27 27 24 16 13 17 17 20 18 15 12 12 12 10
38 39 37 35 35 38 45 49 62 87 99 89 98 91 83 86 87 68 38 37 40 49 51 52 51 51 49 43 35 29 24 16 13 14 16 18 21 21 23 17 13 13 12
34 36 35 35 35 43 45 50 56 76 92 88 94 94 90 88 81 43 37 39 45 51 52 52 52 53 51 46 37 26 18 12 13 16 18 16 15 16 30 24 17 14 14
37 36 35 36 41 47 50 59 67 90 90 97 96 94 90 87 64 38 39 39 48 51 52 51 52 54 52 46 35 22 14 12 14 18 18 17 19 20 28 36 31 35 26
40 40 37 37 42 46 56 73 84 94 98 99 100 98 97 89 49 37 39 42 48 51 51 50 53 54 51 42 28 17 12 13 17 16 16 18 21 24 28 35 34 39 27
37 40 39 39 40 50 67 80 100 99 100 100 99 96 89 60 37 40 40 44 49 50 50 52 54 54 48 35 22 14 14 18 18 18 21 21 23 26 33 39 45 42 45
38 41 44 45 47 55 73 85 100 100 100 95 84 77 55 37 40 42 42 44 48 49 50 54 55 52 41 29 18 15 19 19 20 23 23 23 25 29 33 39 43 53 72
41 41 48 51 61 69 83 97 98 98 94 76 68 50 39 42 45 43 42 47 48 50 54 56 55 46 32 20 18 22 22 22 25 26 26 25 27 30 37 44 51 56 60
46 47 51 56 65 79 92 95 98 97 81 70 51 45 43 46 47 43 46 49 50 53 57 58 51 39 25 21 24 25 26 28 29 29 29 28 33 36 46 58 66 73 76
59 66 72 72 78 84 90 92 93 84 75 57 53 50 47 47 45 46 49 50 53 57 60 56 45 30 24 26 28 29 31 33 33 31 30 30 38 44 54 72 78 88 82
82 77 73 81 82 82 81 79 75 68 62 60 56 50 48 46 47 50 51 53 58 61 60 50 34 26 27 29 32 34 35 34 32 31 32 36 39 47 62 75 87 88 97
84 80 77 79 78 75 70 68 65 63 60 55 50 47 46 47 50 52 53 58 62 62 52 37 28 28 30 33 35 36 35 31 30 33 30 30 37 48 79 90 91 91 83
81 76 70 66 63 60 58 56 54 52 50 48 46 46 47 49 51 53 57 62 62 54 40 29 28 30 31 33 37 34 33 33 38 34 34 43 51 59 89 91 86 90 93
81 74 67 62 60 58 57 54 51 49 47 46 45 46 48 50 52 56 61 61 54 42 30 27 26 27 30 37 35 28 43 46 44 44 56 61 64 66 76 69 92 100 98
78 69 64 60 59 56 53 53 52 51 50 48 48 48 49 51 56 61 61 55 44 33 27 24 24 26 38 37 27 23 41 55 57 64 68 72 74 66 72 78 90 97 86
74 68 61 60 59 58 58 57 57 56 55 50 49 49 51 56 62 60 55 48 38 28 21 18 24 36 38 27 21 22 38 64 74 74 76 87 73 87 96 97 98 83 76
66 64 64 62 62 61 61 62 62 58 54 52 51 52 58 63 62 57 52 43 31 20 14 22 37 39 27 21 18 23 70 84 83 80 87 82 95 91 98 96 98 94 75
62 63 67 66 64 65 66 66 63 59 56 53 55 61 66 63 61 57 45 32 20 13 21 37 38 26 21 18 24 66 96 95 86 97 88 86 98 96 100 96 98 92 75
64 65 68 68 68 68 67 65 62 58 56 58 65 68 67 65 60 46 34 20 12 24 41 37 25 18 18 23 30 67 96 93 98 90 88 86 95 97 93 94 93 91 95
68 69 70 71 70 68 66 63 61 59 61 68 70 71 69 61 48 36 19 16 34 43 35 23 16 15 20 28 39 80 96 94 91 94 87 93 99 98 96 90 99 100 100
72 73 70 69 66 64 64 64 62 66 72 74 74 69 63 50 37 20 24 41 44 32 22 18 20 23 26 32 48 77 91 94 96 93 98 88 98 68 61 74 98 93 84
70 68 66 64 65 64 64 66 70 75 77 75 71 64 51 34 22 32 45 44 31 21 20 27 32 33 40 51 80 91 89 96 94 95 94 82 67 62 73 77 78 83 90
65 65 64 63 61 64 67 74 79 80 76 70 64 49 30 26 38 48 44 31 23 24 33 32 38 58 68 86 96 93 96 94 96 99 84 68 64 69 79 80 84 88 92
57 56 55 54 59 65 72 79 81 75 68 63 45 29 31 42 50 46 31 24 20 20 25 29 41 48 66 97 98 98 97 98 100 89 72 70 71 84 90 91 91 89 92

GFSMW_850_rhum_009.txt.gz
RH
42 41 39 39 36 34 32 32 33 37 42 68 91 94 94 100 100 99 99 95 91 88 34 37 43 45 40 36 30 24 21 19 17 15 12 12 12 14 20 20 18 11 19
41 38 36 37 38 36 34 35 39 43 50 64 83 88 90 98 100 100 100 99 82 41 38 45 49 48 46 44 40 34 26 21 18 16 14 13 13 17 12 11 11 11 11
35 36 35 37 36 36 35 41 44 53 67 64 87 87 97 100 100 100 99 77 50 38 42 50 50 50 50 50 47 42 32 23 17 15 14 18 22 15 12 13 13 14 14
36 32 34 34 39 35 39 49 57 63 65 80 93 83 89 90 93 86 81 73 38 42 49 51 51 52 53 53 51 44 35 23 17 14 14 15 16 23 30 20 20 17 17
36 30 27 29 37 37 40 49 64 69 88 98 89 91 84 88 79 81 82 39 40 46 51 51 51 53 54 54 52 44 31 21 15 15 16 15 16 18 24 31 22 22 21
39 36 37 32 36 41 46 51 56 77 100 82 85 93 88 88 83 81 45 40 42 49 51 51 51 54 55 55 52 42 28 18 15 17 17 18 21 22 27 45 43 45 38
37 38 42 41 36 40 44 51 55 68 99 86 83 96 92 88 84 73 40 39 42 49 51 51 51 54 56 55 50 38 24 17 18 18 19 21 22 23 25 31 43 54 48
27 38 38 42 37 39 44 49 56 69 98 91 98 88 92 88 82 54 39 42 45 49 50 50 52 55 56 54 46 31 21 20 20 21 23 25 26 28 29 36 46 50 48
32 30 34 45 40 41 45 51 65 79 87 97 94 94 93 89 68 40 42 42 44 48 50 50 54 57 55 50 39 26 22 22 24 26 28 30 30 30 32 36 37 53 62
41 27 33 43 48 46 52 68 78 84 90 98 99 98 95 76 44 40 42 42 44 48 49 52 56 56 53 45 32 25 25 26 29 32 33 33 32 31 32 35 42 54 74
53 42 32 46 58 60 67 79 95 96 95 98 100 94 71 44 41 44 43 42 46 48 51 55 57 55 48 36 28 27 29 32 34 35 34 31 29 26 25 33 46 60 74
59 56 47 47 66 79 86 94 99 97 97 98 84 67 44 44 47 46 43 45 48 50 54 58 57 51 40 30 28 31 33 34 35 34 30 25 22 19 24 33 44 63 77
75 78 75 72 76 90 96 100 98 96 93 77 62 47 47 48 47 44 45 48 50 54 58 58 52 44 34 28 31 32 32 35 34 31 26 25 25 30 36 45 63 86 96
86 87 84 81 89 97 100 100 99 95 80 64 53 52 50 47 45 46 48 50 54 58 59 55 48 38 29 28 28 32 36 34 28 25 30 33 42 47 56 86 98 97 92
91 90 90 92 96 99 99 98 92 80 68 59 55 51 47 45 46 48 50 54 58 59 56 49 40 30 25 23 29 37 33 27 23 29 36 46 54 64 90 95 95 96 95
91 89 89 89 86 85 83 79 73 66 62 56 50 47 46 47 48 50 53 57 59 57 50 43 31 22 19 28 37 31 24 23 34 41 42 58 68 81 91 92 98 100 98
88 84 86 82 79 76 71 67 62 56 51 48 46 46 46 48 50 53 57 59 57 53 45 31 21 16 29 38 30 21 19 26 36 47 65 79 87 75 84 83 99 98 94
84 79 74 68 63 60 57 55 52 48 46 46 46 46 47 50 53 57 59 60 57 45 31 20 16 30 38 28 19 17 19 27 51 71 76 87 82 93 98 98 100 92 82
78 73 67 63 61 58 54 51 50 49 47 47 47 48 50 54 59 62 64 58 44 34 18 17 35 38 26 17 16 18 27 57 76 74 86 91 100 100 93 96 93 97 94
71 69 68 65 60 57 55 55 53 50 48 49 50 52 56 61 67 67 58 47 36 16 22 39 36 22 16 16 17 26 74 93 92 100 100 94 100 95 99 94 96 100 76
74 72 68 64 62 60 59 58 54 52 53 53 55 60 66 70 68 59 49 32 17 31 41 34 20 15 16 17 21 27 94 97 97 98 100 98 98 98 94 95 95 91 97
81 76 71 67 64 62 61 59 57 56 56 58 64 71 73 68 60 48 26 22 39 42 30 18 13 15 16 19 26 58 98 96 96 100 97 95 99 97 96 85 94 100 100
80 77 71 67 62 60 63 62 59 58 62 69 75 74 68 60 43 24 30 45 42 28 17 16 16 16 17 23 40 72 96 96 98 94 98 100 95 63 58 71 82 82 83
77 72 69 65 62 61 62 63 62 67 73 76 73 67 58 39 25 36 47 41 27 18 16 18 20 22 29 40 78 94 88 94 96 97 95 72 61 56 70 75 79 84 90
70 68 67 64 63 63 64 67 71 75 76 72 66 55 34 28 40 49 42 28 20 19 21 24 30 41 52 74 98 95 96 95 96 100 75 63 58 64 78 79 82 88 91
66 65 65 64 63 66 69 74 78 75 71 64 50 32 32 44 51 45 30 20 18 20 23 26 32 34 44 85 99 98 98 100 97 82 66 65 65 80 88 90 89 88 91

GFSMW_850_rhum_012.txt.gz
RH
41 44 44 45 41 37 34 32 32 33 44 73 71 79 90 91 94 95 94 99 90 86 88 54 36 44 43 42 41 38 34 26 18 15 24 19 13 19 43 24 16 14 12
35 38 43 42 44 38 37 35 33 34 45 46 67 60 75 95 95 96 100 100 94 86 75 36 44 48 47 48 48 46 40 32 22 16 23 26 26 29 20 17 13 14 14
31 34 35 38 44 42 37 37 34 38 50 60 82 82 83 90 100 100 100 99 91 71 37 42 49 49 50 51 52 51 46 34 24 17 19 24 23 24 21 24 18 20 18
30 30 34 33 38 38 38 38 38 43 58 71 70 70 69 89 98 100 99 98 72 43 40 48 49 50 52 53 54 53 48 37 23 22 16 15 17 26 27 30 31 30 33
27 32 33 34 38 32 34 38 44 55 56 61 74 88 85 92 94 99 100 84 54 40 44 50 50 51 53 54 55 54 47 37 24 19 17 18 27 36 42 35 32 36 39
32 33 40 38 39 46 34 43 51 63 65 75 94 96 85 79 93 99 91 64 52 42 48 50 50 51 53 55 56 54 48 34 23 19 18 20 31 36 40 40 39 42 41
30 33 38 46 49 49 37 46 56 60 71 97 99 96 89 84 89 80 76 74 45 43 48 50 50 51 54 56 56 53 43 29 22 20 22 24 27 32 43 48 46 45 45
39 31 37 47 56 55 41 49 58 62 85 98 100 100 97 95 86 79 78 59 41 44 49 50 49 52 54 56 55 50 38 27 23 23 26 29 32 36 42 52 55 50 42
46 45 39 48 61 62 45 53 64 69 96 97 99 99 100 92 85 82 67 42 42 46 48 48 49 52 55 55 54 45 33 26 26 29 32 35 38 37 45 53 59 57 52
42 49 45 54 65 74 63 82 86 79 94 96 92 97 93 91 82 77 54 41 44 45 46 48 50 54 55 55 50 38 30 28 31 33 35 36 38 37 40 55 61 62 60
50 56 52 58 74 85 88 89 88 80 85 98 99 99 93 84 79 60 42 43 42 43 46 48 52 54 55 52 43 33 29 29 30 34 36 34 31 30 46 56 60 63 65
59 66 65 76 87 92 92 92 85 82 87 100 100 100 100 92 64 44 42 41 41 44 47 51 54 56 54 46 37 30 28 26 30 35 35 32 37 32 48 59 63 69 72
61 72 84 86 91 93 94 88 89 90 96 100 99 90 80 65 46 42 43 41 43 46 50 54 56 55 48 39 30 25 23 28 36 36 32 34 35 48 59 64 74 79 78
69 75 84 85 91 95 94 95 94 99 100 100 89 84 66 45 44 45 43 43 46 50 54 56 56 51 42 30 23 22 29 40 39 34 40 49 50 69 75 81 81 77 79
64 81 86 87 93 94 100 100 100 100 99 88 74 58 47 48 46 43 44 46 50 54 56 56 53 44 30 21 20 33 40 48 54 54 66 66 66 49 71 96 91 88 87
66 84 86 86 89 100 100 100 100 98 82 66 53 50 49 46 44 44 47 50 54 56 56 53 44 31 20 19 32 34 26 42 66 69 63 73 87 90 96 94 94 94 95
82 85 83 83 96 100 100 99 92 81 63 56 52 50 46 44 45 47 50 54 57 57 54 43 31 18 22 34 32 21 15 51 57 67 79 84 82 93 90 95 95 95 97
88 84 82 85 90 94 92 88 76 61 57 52 48 45 44 46 48 51 54 58 58 55 41 30 17 27 36 29 17 13 19 48 74 84 87 86 88 89 95 98 95 98 90
84 82 86 82 81 79 74 66 60 55 49 46 45 45 46 48 52 56 60 61 54 40 26 18 33 36 25 15 14 14 28 74 80 82 82 88 91 95 92 98 92 87 78
81 82 77 72 69 64 60 55 50 46 45 45 46 47 49 54 59 64 63 51 40 22 24 38 34 21 14 14 15 16 62 79 77 78 82 89 94 90 97 96 90 87 86
79 71 64 60 57 54 50 48 45 45 46 47 49 52 56 62 66 61 50 37 21 34 40 31 18 14 15 16 16 19 74 87 85 83 87 88 89 96 95 96 94 93 99
78 70 64 59 54 51 49 49 49 49 50 52 55 61 66 66 59 49 30 26 41 41 29 16 15 19 18 19 17 29 95 97 93 96 89 89 96 97 96 94 97 100 100
78 71 64 59 54 52 53 56 53 53 55 60 66 70 66 58 44 26 34 44 40 27 16 15 18 23 23 26 35 80 94 94 96 94 94 96 97 81 58 79 86 91 100
76 69 63 60 56 54 55 59 57 58 65 71 70 64 55 39 27 38 46 41 27 17 17 26 30 39 51 69 83 90 90 97 93 95 96 95 82 93 89 89 98 100 100
72 66 63 60 58 58 59 60 64 69 72 70 63 54 34 30 42 48 43 30 18 17 19 23 25 59 70 79 95 96 97 97 96 99 93 84 84 90 96 98 100 100 100
67 64 63 62 60 61 64 68 71 71 70 62 50 31 34 43 48 45 32 19 18 19 21 21 22 28 50 82 99 99 99 100 98 98 88 88 94 99 100 100 98 97 98

GFSMW_850_rhum_015.txt.gz
RH
28 31 34 31 28 31 34 38 38 50 56 74 90 93 95 99 100 96 83 81 87 89 87 86 81 35 42 42 44 45 43 38 30 20 22 32 20 32 49 48 26 30 26
26 27 30 36 37 36 39 40 44 52 63 77 74 93 100 100 100 91 83 86 92 90 85 84 38 42 46 47 48 49 48 44 36 23 27 30 28 32 30 30 29 29 23
24 24 27 30 36 38 38 40 48 60 73 71 95 99 100 100 99 96 87 94 98 92 83 58 37 47 48 50 51 52 52 47 40 28 19 27 27 23 23 25 29 28 31
22 22 22 25 29 36 40 43 53 66 79 91 86 83 59 86 97 91 92 100 100 90 72 39 43 49 50 51 53 54 54 51 41 31 24 18 18 31 30 28 32 31 29
20 20 23 25 26 30 38 47 60 74 86 85 97 99 91 96 97 93 100 100 94 83 52 42 47 49 51 52 53 55 55 53 42 30 22 22 30 36 39 40 36 36 37
20 24 25 26 29 30 36 45 70 79 86 93 99 85 93 87 88 92 100 98 94 61 45 44 48 50 51 52 54 55 56 52 42 30 23 22 26 32 42 42 41 43 40
24 25 26 30 35 34 37 52 81 84 93 99 92 90 95 83 77 80 94 98 88 54 45 45 49 50 51 52 55 56 56 51 38 28 24 24 28 35 42 49 49 49 43
32 39 39 28 34 44 43 69 86 86 94 93 99 98 93 88 80 82 91 96 72 55 45 46 49 49 51 53 55 57 55 46 35 28 26 28 32 38 43 50 55 57 53
34 37 42 39 33 43 50 72 85 90 94 98 100 97 96 89 86 92 97 73 55 54 44 47 48 49 51 54 56 56 51 41 32 30 32 36 36 39 43 47 52 60 61
32 38 45 46 39 49 60 75 82 90 97 100 96 97 93 94 92 90 72 56 61 46 45 47 47 49 52 55 56 54 47 36 33 36 32 32 35 39 39 44 54 56 59
39 44 50 49 44 55 67 74 81 89 97 95 98 97 98 99 92 77 66 65 51 43 46 46 47 50 54 56 55 48 40 33 32 33 35 34 37 38 41 41 48 55 60
41 48 56 56 53 65 74 77 82 89 88 88 98 100 95 97 85 70 64 54 43 44 43 45 48 52 56 56 51 42 34 30 28 32 41 42 53 46 46 51 56 59 63
32 45 57 65 68 75 78 80 82 85 84 91 99 100 97 87 76 61 59 44 42 42 43 47 51 55 58 55 46 34 25 24 35 44 51 52 54 55 57 62 68 73 77
39 55 68 68 75 79 80 83 87 89 89 97 98 99 95 78 61 54 46 41 41 42 46 51 55 58 57 51 36 24 20 34 46 50 62 61 61 64 70 71 86 86 85
57 56 72 72 75 83 86 88 90 88 98 100 100 97 90 70 53 44 42 42 43 46 51 55 58 60 54 38 24 18 31 35 46 51 57 61 65 69 87 95 93 92 88
67 61 75 75 87 85 81 83 89 93 97 99 92 67 58 48 44 43 43 44 46 51 55 58 59 53 37 26 19 33 29 20 34 51 50 61 70 78 84 90 91 91 91
70 71 77 80 81 83 90 82 87 95 92 90 70 62 48 46 45 47 47 47 52 55 58 59 51 36 20 24 34 24 14 15 38 50 67 79 77 83 87 88 90 85 96
79 78 78 79 81 86 90 87 84 83 85 80 69 48 48 51 58 51 48 52 56 60 60 48 35 20 33 33 19 13 14 22 49 70 77 78 79 84 90 84 93 86 83
78 76 72 76 84 93 96 93 91 87 77 66 52 62 64 47 46 50 53 58 63 60 45 27 25 36 29 18 14 15 15 36 67 72 72 76 82 86 87 95 91 91 87
79 68 70 78 96 98 96 94 93 89 82 82 57 45 46 48 51 56 62 64 53 41 22 34 36 26 16 16 16 16 23 67 77 77 78 79 85 87 90 96 95 90 86
89 88 87 89 84 78 79 66 54 49 46 45 45 47 50 55 60 66 60 50 32 27 39 34 25 20 22 23 25 24 35 91 92 89 87 81 87 92 93 94 94 93 98
56 56 52 50 48 50 52 49 47 46 46 47 50 53 58 65 66 56 45 27 35 41 34 24 21 35 46 47 48 53 95 95 94 90 85 89 93 94 95 96 97 100 100
61 58 54 52 50 48 48 47 47 48 50 54 58 64 68 62 54 37 30 40 41 33 23 20 29 39 44 49 66 82 91 92 91 89 94 94 96 95 88 89 100 100 95
61 57 53 51 49 49 50 53 53 55 58 63 69 67 61 50 29 34 42 42 35 22 20 30 32 30 41 56 68 56 81 91 93 92 90 87 92 81 85 88 90 94 97
61 58 56 53 52 53 56 56 58 61 68 70 66 58 42 29 37 43 43 35 22 18 18 20 20 23 28 36 34 86 94 96 95 98 77 80 78 83 86 92 94 97 100
63 59 58 58 56 58 59 61 66 70 69 64 55 37 31 39 45 45 36 23 20 19 21 21 17 16 20 30 47 96 99 99 100 84 82 82 87 92 95 98 90 90 94

GFSMW_850_rhum_018.txt.gz
RH
28 28 28 28 27 26 27 31 34 35 50 77 79 76 88 89 93 95 98 91 82 80 86 82 84 85 34 41 42 45 45 44 39 27 19 25 26 24 28 46 44 25 25
26 26 27 28 31 31 27 29 34 37 37 62 76 68 82 88 91 96 99 94 82 79 82 77 81 62 39 44 47 48 48 48 45 34 23 25 27 32 28 24 27 29 27
24 25 25 26 28 33 33 31 32 37 42 45 82 90 89 88 93 95 99 95 94 84 88 80 80 37 44 47 49 51 51 51 49 42 28 21 26 24 21 24 24 26 30
21 22 24 24 26 28 33 36 39 39 44 53 75 66 60 79 95 99 100 100 100 96 92 83 65 36 46 49 51 52 53 54 53 47 34 24 20 18 20 24 26 26 30
21 21 21 22 22 23 30 33 37 41 48 61 74 68 78 86 93 100 98 100 100 99 89 80 51 42 47 50 51 52 54 55 55 48 36 26 23 24 34 34 29 27 26
19 21 22 25 25 25 22 35 37 41 57 73 84 80 74 96 92 100 99 99 97 92 82 72 46 46 48 50 52 53 55 56 56 49 37 28 25 26 32 36 30 31 26
20 22 30 34 32 29 28 25 40 43 55 77 95 94 82 72 72 98 100 98 94 87 83 73 48 47 48 50 52 53 56 57 56 48 36 28 26 28 32 38 37 39 32
20 31 36 39 40 33 30 33 38 51 62 81 92 99 100 82 87 98 100 100 96 88 80 67 48 48 49 50 52 54 56 58 55 47 35 29 28 30 33 39 48 49 46
24 33 35 41 46 42 35 38 52 54 58 85 100 100 97 88 90 96 100 98 94 86 78 57 46 48 49 50 52 55 57 58 52 42 33 30 28 28 34 42 47 54 64
24 33 38 44 44 43 38 42 56 54 68 92 96 96 89 96 92 98 98 96 94 88 61 52 47 48 49 51 54 57 58 56 46 36 31 27 25 29 38 40 39 39 50
34 37 44 48 44 43 42 48 56 62 74 91 96 94 94 96 93 95 95 94 90 63 54 48 47 48 48 51 55 58 58 52 41 30 26 24 32 40 40 38 33 36 50
30 33 38 50 49 51 50 57 61 82 87 90 95 94 92 94 91 91 90 84 64 58 50 46 46 47 50 54 57 58 54 43 30 23 25 35 45 45 40 37 45 58 61
27 34 42 52 52 62 60 67 77 97 92 94 96 94 92 90 85 82 74 60 57 51 46 45 45 48 53 57 58 56 43 29 21 27 40 45 48 39 41 52 58 62 64
44 40 54 61 63 72 71 79 100 96 87 94 91 90 86 87 81 77 60 61 50 46 43 44 47 52 56 60 58 43 29 19 27 34 37 43 48 55 64 68 72 84 90
64 59 61 64 69 78 93 98 94 87 86 88 86 87 86 79 76 60 58 52 45 43 44 47 52 56 61 60 42 27 20 31 30 21 20 36 53 61 68 89 89 93 97
79 75 64 70 81 94 95 92 88 86 85 84 75 76 73 59 58 53 46 43 43 45 48 56 64 61 64 44 24 26 32 24 14 14 22 36 47 54 83 88 89 89 95
85 76 71 82 91 88 88 88 86 82 77 72 72 66 62 64 72 56 57 45 50 57 57 58 64 61 46 24 32 30 19 14 15 20 44 58 67 74 78 82 92 92 90
75 75 78 86 86 86 84 83 74 74 76 78 77 82 90 92 75 53 51 55 54 55 60 69 66 39 25 33 28 16 14 16 17 35 58 73 73 77 85 88 91 97 88
84 82 81 81 82 80 77 72 71 78 83 89 94 92 81 70 63 74 61 52 57 65 83 57 29 31 35 26 16 16 17 16 20 43 63 70 83 84 88 92 87 90 91
75 75 76 78 80 80 78 82 90 93 94 96 93 84 80 64 50 51 55 61 77 66 41 27 36 32 23 20 22 23 22 18 29 39 60 80 91 92 91 89 97 96 86
71 83 86 94 97 95 100 100 100 100 95 93 90 73 55 50 54 60 68 65 46 29 35 37 29 24 25 30 35 32 28 52 86 92 87 82 90 93 92 93 96 94 96
99 97 99 99 100 98 96 80 76 78 65 52 49 50 54 61 67 64 51 34 32 39 36 29 21 28 38 38 37 63 87 93 93 93 89 88 94 95 95 95 94 98 98
52 52 58 65 67 75 62 52 46 47 48 50 54 59 65 66 55 42 30 38 40 35 26 20 23 24 25 30 43 50 56 46 90 92 96 97 96 94 91 80 95 99 87
51 50 50 50 50 49 48 48 48 50 54 59 65 67 59 47 31 36 40 40 35 24 18 19 19 20 19 19 25 32 39 51 72 86 92 80 65 83 81 72 76 82 86
55 53 50 50 50 50 51 53 55 59 66 67 61 52 38 31 36 41 41 36 24 19 19 20 21 16 12 16 50 70 70 84 97 98 81 61 65 63 63 71 78 81 87
55 52 52 54 53 55 56 60 66 69 64 58 50 34 31 38 41 42 36 24 20 21 22 20 12 12 20 27 38 48 93 99 99 94 76 69 69 70 72 78 83 85 90

GFSMW_850_rhum_021.txt.gz
RH
31 30 30 29 27 25 26 27 36 44 56 56 61 74 92 96 89 86 89 90 87 90 92 83 83 82 83 46 38 41 43 43 41 34 22 22 23 24 28 31 36 36 26
26 29 28 28 28 29 26 25 27 35 51 58 52 48 68 85 88 90 90 90 87 88 91 80 81 80 81 36 42 45 46 46 46 41 27 22 26 25 27 27 30 31 28
25 24 25 26 27 27 28 30 27 28 45 53 52 51 64 71 87 88 87 87 90 93 87 81 80 78 68 39 45 48 48 49 49 47 40 26 21 21 20 22 25 24 26
24 24 23 23 24 25 26 28 32 32 38 43 49 52 53 65 81 80 85 84 92 99 90 89 83 77 50 41 47 49 50 50 51 51 48 38 27 20 19 21 23 26 27
22 22 20 20 21 22 24 26 30 30 39 40 42 47 51 55 62 70 78 86 92 100 95 94 85 65 40 44 48 49 50 51 52 54 52 44 31 24 24 24 22 22 22
20 20 23 24 26 26 25 24 24 33 33 42 45 47 53 51 62 75 86 91 91 99 98 94 85 56 42 45 49 50 50 52 54 56 54 46 32 26 26 29 26 26 20
18 18 22 22 26 28 27 26 26 26 33 35 44 52 54 54 59 69 84 92 92 97 98 90 83 52 45 48 50 50 51 53 56 57 54 46 32 28 29 32 31 32 27
16 17 22 31 34 33 33 32 30 29 27 42 46 55 60 68 73 71 90 92 96 96 92 88 72 51 47 50 51 50 51 54 56 58 54 42 31 28 29 31 37 40 40
17 18 34 35 36 35 29 28 36 36 31 37 56 61 67 74 70 89 100 98 97 95 88 81 63 50 51 52 51 50 52 55 58 58 51 37 29 27 26 31 39 47 58
23 35 35 36 39 32 26 26 34 39 36 43 61 64 66 73 78 98 97 96 97 97 80 73 60 53 52 51 50 51 53 57 58 56 43 31 28 25 30 38 39 39 44
33 36 38 36 35 28 23 26 39 38 46 53 61 68 73 77 94 95 97 96 100 88 72 73 69 60 50 50 51 53 56 58 58 47 32 26 25 31 39 40 36 34 38
38 38 34 32 29 30 28 37 50 54 57 62 68 72 74 82 95 91 94 99 97 73 76 73 54 51 50 50 52 55 58 59 49 32 24 25 39 41 43 40 35 40 47
40 47 46 43 37 33 33 36 60 60 60 66 71 77 80 88 93 91 94 95 84 84 85 55 50 50 48 50 54 58 59 49 33 23 26 37 42 38 37 40 46 50 60
67 55 61 64 61 57 47 50 69 70 70 74 83 90 96 93 92 90 86 87 80 77 54 60 52 47 50 54 58 61 53 32 22 30 32 30 28 33 44 52 58 73 86
71 66 66 68 69 68 64 74 79 92 93 99 98 96 95 90 75 79 72 63 68 67 63 49 46 50 54 60 70 48 31 24 30 25 16 16 27 42 49 62 86 90 89
75 76 68 73 81 85 97 95 98 99 99 100 96 89 83 79 72 58 64 82 58 52 55 48 50 56 64 66 43 27 28 29 20 15 16 19 28 37 52 77 86 89 91
81 79 82 85 92 96 92 100 92 91 85 90 84 79 73 65 72 73 72 70 65 53 50 56 60 63 63 42 27 32 28 18 16 16 17 22 39 64 70 77 88 91 95
80 82 82 86 89 95 99 99 92 88 81 77 77 79 76 85 82 84 87 88 83 77 78 66 64 55 34 28 32 26 16 17 17 15 15 31 57 69 83 90 96 98 90
80 82 85 87 88 89 91 90 86 83 79 67 65 76 82 88 95 97 94 86 88 83 64 62 37 30 34 31 23 17 18 19 14 12 25 48 63 66 93 95 94 88 89
82 84 86 87 89 88 84 80 84 91 90 90 98 96 99 99 92 85 86 62 56 66 48 30 36 34 27 21 19 20 19 16 19 35 49 61 86 95 94 95 97 96 90
81 83 83 81 83 84 84 93 98 98 98 99 99 98 99 94 82 63 56 65 66 34 35 36 32 25 20 22 24 25 34 56 70 62 53 63 79 96 96 96 98 97 93
96 96 96 99 97 99 98 98 100 100 97 98 97 84 63 55 56 61 56 38 33 37 35 30 22 21 23 26 30 48 76 90 62 41 58 80 96 97 97 96 94 96 99
99 100 100 99 99 99 100 98 98 99 92 66 53 53 57 60 56 41 32 36 37 34 28 20 20 21 23 22 19 23 34 30 36 54 91 100 100 69 57 65 92 75 76
83 94 94 93 96 91 82 72 63 51 50 53 58 62 57 45 33 33 36 37 34 24 19 19 20 21 17 12 15 22 27 37 62 87 100 95 64 55 57 55 64 76 82
53 54 54 52 51 49 48 48 56 54 58 65 64 54 42 31 34 38 38 33 23 21 21 21 16 9 11 19 28 44 66 90 96 100 79 59 50 50 54 61 75 80 85
53 51 50 50 52 49 52 55 58 65 66 58 49 34 34 38 40 39 29 22 21 22 20 12 9 23 36 55 61 65 98 100 100 78 63 57 58 58 60 74 82 82 86

GFSMW_850_rhum_024.txt.gz
RH
30 32 31 30 30 29 27 26 28 32 56 63 58 61 70 74 75 88 84 87 90 88 88 91 93 95 84 83 70 36 40 42 40 35 25 23 23 26 30 32 34 40 38
26 28 28 29 31 30 29 27 26 26 30 51 54 57 54 63 60 72 83 87 88 88 86 89 93 88 81 83 62 39 43 44 44 40 29 27 29 26 28 28 34 35 32
25 22 26 27 27 29 28 28 29 28 27 38 51 60 62 61 66 67 76 87 86 85 89 86 89 86 81 82 52 41 45 46 46 46 40 31 23 26 25 26 25 26 27
29 26 22 24 24 24 24 25 27 28 33 32 40 51 61 61 62 61 74 79 85 85 85 81 86 86 81 78 42 42 46 47 48 48 48 46 41 28 21 23 24 25 26
22 20 21 23 22 22 21 22 23 26 29 36 39 44 56 58 54 55 62 64 69 81 81 84 92 90 82 64 42 42 47 48 50 51 52 51 48 39 29 24 24 24 25
18 21 22 22 21 21 22 22 22 24 25 32 39 42 53 54 56 58 58 68 71 74 82 89 98 93 84 63 45 48 49 49 50 52 54 54 50 41 30 26 24 24 21
18 18 20 20 23 26 27 26 25 25 24 25 37 42 47 51 52 54 54 57 66 73 82 85 96 93 83 51 46 50 51 50 50 53 55 56 52 41 30 27 27 28 22
21 19 19 18 20 21 23 24 24 23 24 25 29 37 47 50 54 52 52 55 61 64 80 96 95 89 79 47 50 52 52 51 52 53 56 56 50 37 29 27 27 29 32
32 31 21 26 32 33 33 29 26 24 27 28 29 35 42 52 51 50 56 63 66 76 96 94 92 80 66 50 53 52 53 53 54 55 57 56 46 32 26 24 27 38 52
40 38 38 46 45 40 35 29 27 26 23 32 32 34 42 57 59 58 64 67 82 99 99 90 91 84 59 52 53 58 54 52 56 56 58 52 37 28 24 29 38 42 46
53 49 41 40 49 38 30 27 24 21 21 30 38 41 48 68 62 67 69 75 89 100 95 92 92 71 66 72 60 56 53 53 56 58 56 41 28 23 31 39 40 38 38
62 62 49 44 38 44 35 30 26 24 23 34 44 50 52 60 66 72 74 89 94 99 94 94 87 71 66 70 77 68 54 55 58 58 44 29 23 31 38 36 32 34 38
70 74 67 64 65 66 60 48 39 31 36 47 58 70 65 69 70 78 85 97 94 98 91 89 75 66 77 66 63 53 55 58 57 45 31 31 32 34 30 28 33 42 49
69 79 73 73 68 68 65 56 46 39 50 62 60 67 70 83 79 93 98 96 94 96 89 76 75 85 83 55 51 55 57 59 52 33 28 29 25 20 23 32 41 54 71
76 72 74 74 77 71 62 65 62 69 76 89 97 79 94 99 95 97 98 94 93 82 75 86 97 82 67 68 54 60 60 43 31 30 25 18 17 22 32 45 61 80 80
86 81 74 78 76 71 75 85 88 94 98 100 100 99 97 94 96 94 84 81 82 85 95 76 75 74 59 58 68 55 34 30 28 20 16 17 19 25 34 55 72 86 93
94 88 90 88 88 95 100 98 96 99 100 97 93 89 91 92 82 76 82 84 88 86 85 93 90 67 60 63 71 41 32 26 18 17 17 16 18 26 39 53 64 82 92
84 84 84 85 93 100 100 100 100 100 100 100 99 99 96 80 76 84 90 92 88 91 95 94 94 99 99 73 33 31 22 18 19 18 15 14 22 29 46 67 84 92 95
87 86 85 90 96 98 99 100 97 99 100 98 92 84 79 83 88 97 99 97 98 97 98 100 100 76 35 35 29 21 20 21 19 15 18 30 28 41 79 90 97 95 91
92 93 94 94 95 94 98 100 100 100 98 89 92 95 97 96 99 100 99 98 99 100 85 52 36 35 33 26 22 21 22 21 17 17 19 19 33 74 95 96 100 96 86
92 92 91 90 87 89 92 94 100 100 99 100 100 100 100 100 100 99 100 88 69 58 46 36 35 31 27 29 32 35 35 34 21 17 16 24 50 100 98 97 98 92 96
99 94 92 97 99 100 100 100 99 100 100 100 100 100 98 94 83 64 57 64 54 36 38 35 29 26 27 28 26 23 21 26 24 25 38 67 98 100 94 73 59 97 94
97 99 100 100 100 100 100 99 98 100 100 96 81 64 57 59 65 58 42 33 36 37 32 25 25 24 21 20 17 11 14 23 35 55 86 99 95 74 49 47 48 54 69
96 99 99 100 99 100 100 97 95 81 56 52 54 60 66 58 41 35 38 39 35 28 21 20 20 20 16 9 13 21 30 44 64 87 96 96 80 60 49 48 56 73 80
97 96 96 96 87 76 55 52 54 53 57 61 63 59 46 36 37 40 38 34 26 21 21 21 16 11 17 25 31 53 70 89 98 99 89 57 46 44 46 53 71 78 80
62 61 59 56 49 49 65 71 63 59 66 61 49 38 36 39 40 39 32 24 21 20 18 12 11 20 29 57 65 54 99 98 100 82 59 52 51 52 54 69 78 81 83

GFSMW_850_rhum_027.txt.gz
RH
30 31 30 30 32 31 26 29 30 30 30 55 67 68 65 68 86 79 74 78 88 88 90 88 89 92 91 93 89 84 53 36 40 35 29 24 24 26 28 32 32 33 38
26 26 29 29 30 32 31 28 29 30 29 30 49 62 64 62 67 66 68 68 78 83 89 86 89 90 91 96 86 82 44 40 42 38 32 28 32 29 28 30 32 36 37
29 22 20 22 27 29 30 30 30 29 29 29 32 58 64 65 63 68 78 71 84 80 86 85 88 88 87 93 81 82 43 42 44 44 37 32 29 28 30 30 29 33 32
23 23 24 26 21 21 27 26 28 28 27 29 33 42 46 59 62 60 59 63 76 76 87 85 80 90 89 92 81 80 43 43 46 46 46 45 42 33 28 27 26 25 27
22 20 20 21 22 22 22 24 24 25 25 26 27 34 41 58 57 60 61 63 65 65 70 77 78 85 82 84 85 76 42 44 47 47 48 50 49 46 40 30 29 26 27
18 19 21 23 20 19 20 21 21 21 22 23 26 28 40 50 56 59 60 59 60 62 65 68 75 81 86 92 89 72 44 48 49 49 50 51 52 52 48 40 33 28 26
30 30 26 22 26 26 21 22 21 21 22 23 25 26 31 46 51 53 63 61 58 60 60 64 73 77 91 94 92 65 45 49 51 50 51 52 54 54 51 42 32 28 25
32 33 35 36 29 26 35 23 18 20 24 24 26 29 27 30 43 47 53 62 58 53 55 60 68 84 98 98 94 68 48 52 52 52 52 53 55 55 51 40 30 26 23
39 44 42 43 39 34 37 40 37 30 27 25 23 24 27 29 33 45 51 55 62 63 59 60 66 96 99 99 94 64 54 53 55 53 55 55 56 54 46 35 25 23 33
52 60 56 53 55 42 47 43 40 34 30 26 23 22 24 32 31 35 54 55 57 60 62 61 80 100 99 95 85 61 64 60 56 60 55 54 57 48 36 27 23 29 36
69 72 68 67 66 56 42 44 47 38 28 26 24 26 27 34 37 39 42 69 70 66 64 74 94 99 98 88 67 69 56 59 76 58 56 57 56 42 28 26 32 36 37
71 70 71 63 66 68 61 39 51 46 42 33 28 29 42 45 49 56 58 72 84 88 76 89 100 97 79 71 77 68 80 71 68 73 75 53 44 30 31 35 34 31 29
77 72 67 72 76 69 64 65 63 57 49 40 33 36 39 53 56 64 77 100 98 100 100 100 96 76 74 82 72 89 88 91 77 64 53 42 36 33 34 30 24 25 34
82 77 76 72 74 72 63 66 63 60 52 44 44 45 60 69 69 80 100 100 100 100 100 94 93 83 85 83 92 94 86 80 60 54 50 32 33 29 21 21 25 32 39
84 89 90 84 78 72 72 75 70 65 59 55 64 88 94 100 100 100 100 100 100 99 96 91 80 81 89 88 90 84 76 69 69 39 34 30 21 18 20 25 32 48 68
83 87 85 86 86 88 86 87 82 80 76 72 99 100 100 100 99 100 98 99 97 89 89 84 84 86 94 97 95 99 93 60 42 68 25 19 19 20 22 31 44 62 78
85 83 88 89 89 91 98 100 100 97 92 93 98 99 100 99 98 97 95 89 90 92 90 95 99 95 96 95 99 96 90 96 42 21 18 19 19 18 22 28 38 47 57
90 90 88 91 98 100 100 100 100 99 97 95 95 95 94 92 92 88 88 86 90 94 95 93 96 100 99 100 99 99 58 24 22 22 20 19 20 22 29 40 70 85 86
94 97 98 98 98 99 100 100 99 100 100 100 99 98 98 98 98 100 100 96 95 95 99 98 98 98 100 98 92 31 26 25 23 22 22 24 25 19 24 92 100 95 74
90 93 97 96 96 96 100 100 99 99 99 99 99 99 100 100 100 100 100 100 99 100 100 100 100 95 47 35 29 25 25 25 26 30 28 21 23 49 98 100 98 88 68
98 95 93 90 93 94 99 100 100 99 99 99 100 100 100 100 100 100 100 100 99 100 94 71 42 36 33 30 31 36 33 38 28 19 19 26 39 77 100 99 87 71 93
90 96 97 98 99 100 100 99 97 99 100 100 100 100 100 100 100 99 93 85 69 48 38 38 36 31 27 27 28 28 30 34 32 28 33 38 66 98 98 67 46 69 89
90 95 99 98 99 100 100 99 98 99 99 100 100 99 81 65 62 67 58 39 37 38 37 31 25 23 24 24 24 19 18 25 36 31 44 91 87 75 47 41 40 45 55
92 95 98 99 99 100 100 100 99 98 90 68 59 60 63 54 40 36 39 39 37 32 25 22 22 23 20 15 20 27 27 26 40 78 95 97 83 53 45 45 48 62 76
94 96 97 97 98 95 80 65 57 54 57 62 62 55 43 36 38 40 38 33 27 23 22 22 20 14 13 15 18 23 48 90 99 100 78 66 50 46 45 46 62 77 81
90 91 85 71 57 56 58 63 57 60 65 62 50 37 34 37 38 37 32 25 22 21 19 14 9 10 17 24 39 53 83 78 54 56 49 48 50 51 51 60 76 81 85

GFSMW_850_rhum_033.txt.gz
RH
32 32 31 31 31 33 32 31 29 28 37 42 47 42 38 46 58 59 62 62 68 75 80 67 52 65 86 87 73 89 92 90 84 63 34 32 28 26 22 23 25 26 26
31 28 26 25 25 27 29 29 31 32 31 33 34 35 34 35 37 52 55 58 58 60 73 72 68 81 93 88 79 88 87 89 86 59 36 33 34 29 25 26 27 28 29
29 29 29 27 27 26 24 25 28 30 34 34 32 34 36 38 38 41 51 55 54 54 59 64 77 91 90 83 84 85 85 86 88 75 39 36 34 34 32 29 29 30 31
40 38 35 32 27 27 26 25 24 27 31 33 34 35 35 38 34 33 33 42 58 60 60 62 69 65 79 83 80 78 78 82 88 77 52 40 36 34 36 35 33 31 34
41 42 41 36 33 28 26 27 27 26 27 30 30 30 30 31 33 35 40 42 46 62 64 60 61 71 67 78 81 77 81 84 89 80 69 42 42 41 39 38 39 37 36
46 48 48 43 36 32 28 25 30 28 27 28 29 32 33 29 29 30 32 34 39 57 64 67 63 68 69 68 73 80 86 88 90 87 74 46 43 44 44 44 45 44 41
49 53 53 50 46 42 36 31 26 30 32 26 26 28 28 29 45 37 34 42 40 41 44 58 62 65 66 66 68 76 93 93 93 94 73 47 47 47 47 47 48 47 44
53 58 61 59 54 52 50 47 41 31 31 38 36 33 28 28 29 28 30 35 42 54 59 52 56 67 69 69 66 71 94 98 98 95 75 54 50 51 56 60 52 50 50
56 62 65 63 63 66 62 55 50 46 40 40 42 38 35 35 33 30 33 40 51 53 55 62 58 59 66 70 71 74 93 100 99 94 79 57 53 63 74 58 55 51 49
60 69 69 70 71 70 62 62 64 59 53 46 48 41 35 33 31 31 31 32 36 46 58 76 76 67 69 74 86 83 99 100 97 83 76 66 71 83 73 64 61 57 54
72 72 73 74 78 75 72 68 70 71 70 70 61 52 43 35 30 28 28 29 32 41 65 74 85 88 91 99 100 100 99 74 95 79 70 77 84 80 74 78 76 59 44
76 73 77 82 84 85 80 73 68 66 67 66 63 56 47 41 34 30 33 42 46 46 62 87 99 100 100 100 100 100 100 99 84 75 80 86 80 86 87 85 84 80 73
78 77 76 75 83 88 78 76 79 73 70 67 66 61 55 48 46 42 35 51 64 64 77 99 98 99 100 100 100 100 99 88 76 79 86 88 95 97 93 91 90 94 94
82 84 83 82 83 83 80 79 83 86 85 80 74 72 63 57 45 44 41 57 95 97 100 100 98 99 100 100 100 98 85 72 78 88 92 96 98 98 91 94 97 98 66
85 87 87 88 88 93 97 97 91 95 96 95 90 79 69 63 53 54 60 84 98 100 100 100 100 100 100 100 92 75 73 83 92 98 100 100 100 99 100 99 90 34 25
87 89 95 98 97 98 98 96 99 98 98 91 86 84 81 85 80 94 100 100 100 100 100 100 100 100 100 93 83 81 92 98 99 100 100 100 100 100 94 32 26 28 23
90 94 99 100 97 97 99 100 100 98 95 98 96 96 95 96 99 100 100 100 100 100 100 100 100 98 95 97 97 100 100 100 100 100 100 99 88 33 28 27 24 22 29
92 95 99 100 98 100 100 99 100 98 94 98 99 98 100 99 99 100 100 100 100 100 100 99 100 100 100 100 100 100 100 100 99 100 88 35 28 26 23 17 14 19 35
91 95 97 97 99 99 99 100 100 98 100 100 99 97 98 98 99 100 100 100 100 100 100 99 100 100 98 99 100 100 100 99 58 27 29 28 28 17 12 18 34 59 76
90 98 96 94 92 95 97 96 98 98 99 99 99 98 99 100 100 99 100 100 100 99 99 99 99 99 100 99 97 46 30 29 28 30 28 17 10 14 29 98 100 98 80
97 100 100 95 92 98 98 94 96 98 100 99 97 94 99 99 99 99 99 99 99 99 99 100 99 91 61 42 35 27 22 25 23 17 16 25 37 62 100 100 96 70 84
91 99 100 98 100 99 98 98 98 99 100 99 99 99 99 100 100 100 100 99 94 76 51 39 34 33 37 34 31 34 31 19 16 26 39 52 77 96 84 69 49 40 47
82 87 94 96 100 100 99 98 98 99 99 100 98 94 86 73 55 41 37 36 36 34 30 28 28 30 29 28 25 19 18 30 37 42 53 71 66 52 41 38 39 40 44
85 80 88 92 90 96 93 89 95 96 69 66 60 50 38 35 36 37 36 34 30 25 23 23 22 22 18 18 24 35 39 37 43 46 46 39 36 36 40 42 44 50 70
85 86 87 91 84 80 75 65 62 64 66 54 41 34 36 38 37 35 31 27 23 22 21 19 16 16 20 27 38 35 44 50 49 33 36 37 39 40 41 45 57 76 79
89 89 90 91 72 61 60 62 62 63 56 42 33 35 36 36 34 28 23 22 22 20 16 13 13 18 23 28 33 34 36 40 40 37 39 41 42 42 47 63 76 82 84

GFSMW_850_rhum_036.txt.gz
RH
33 36 32 32 32 32 32 30 29 28 30 75 65 54 66 55 54 49 62 65 62 67 72 75 75 66 57 61 64 79 77 85 87 81 72 51 31 28 26 27 24 24 24
31 31 26 24 24 27 29 30 32 31 30 34 62 48 56 61 60 46 44 58 58 58 62 67 74 80 59 57 62 84 81 83 88 84 58 48 43 32 29 28 25 25 25
35 40 42 36 28 26 25 25 28 28 30 31 33 62 71 60 52 41 36 37 50 56 59 55 64 67 72 59 62 84 80 76 83 85 74 50 45 45 35 30 27 27 26
44 49 48 42 35 30 28 26 25 24 27 30 33 66 85 62 38 35 34 34 36 56 61 57 67 63 62 69 69 89 80 77 82 84 84 76 41 39 43 36 32 29 29
50 53 52 44 40 35 30 26 27 25 25 26 31 62 84 84 81 82 53 35 33 38 52 53 56 64 63 65 73 84 82 80 80 80 81 81 61 39 37 42 38 35 32
50 56 60 53 47 42 39 35 30 29 30 30 29 32 65 84 85 92 93 78 62 38 40 51 55 55 65 66 61 69 88 83 80 79 84 86 76 58 40 39 42 40 40
50 58 66 64 50 46 44 43 41 37 32 38 36 32 31 51 88 94 93 90 72 38 35 40 51 57 60 63 70 70 74 88 84 85 87 92 86 72 49 41 42 42 44
52 65 70 71 69 59 57 53 50 48 45 36 35 38 38 37 35 57 80 93 91 91 40 53 64 65 64 61 66 68 72 78 93 93 93 92 89 71 48 47 46 44 47
59 69 71 73 75 76 71 64 58 56 55 51 44 45 42 39 37 39 43 34 58 74 76 52 70 88 95 96 81 69 69 72 83 96 99 95 92 72 54 50 50 51 53
66 71 71 77 83 84 73 72 66 64 65 64 59 50 49 45 39 37 36 36 41 59 58 60 55 69 90 100 100 100 97 96 95 99 100 96 83 72 58 52 60 77 80
71 73 74 79 88 85 79 76 70 65 63 68 66 62 57 51 45 39 35 35 38 39 44 54 68 79 77 89 99 100 99 100 100 100 100 99 95 84 66 70 82 80 69
74 75 76 85 84 77 82 73 70 70 68 69 68 65 59 54 47 42 38 39 41 45 47 55 93 99 100 100 100 100 100 100 100 100 100 100 94 74 80 82 83 91 98
76 76 76 84 85 82 79 79 79 82 80 75 69 67 67 61 57 51 54 60 65 76 75 88 99 98 99 100 100 100 100 100 100 100 100 86 75 89 89 94 96 99 98
78 82 81 87 94 93 91 90 91 92 91 89 88 83 78 72 68 64 61 60 61 60 89 93 94 99 98 100 100 100 100 100 100 100 94 94 95 94 96 100 100 99 99
79 84 88 95 98 99 98 91 94 97 98 96 92 87 85 85 86 84 76 75 66 62 68 96 99 99 98 100 100 100 100 100 100 94 91 94 97 99 99 100 100 99 99
82 88 94 100 100 99 99 100 100 92 91 93 93 90 91 90 99 100 98 98 97 78 65 81 98 100 99 99 100 100 94 88 88 88 95 99 100 100 100 99 100 95 56
87 93 99 100 100 100 100 100 99 96 91 95 95 94 94 93 90 94 99 99 98 98 98 100 100 99 99 96 93 92 87 92 100 100 100 100 100 100 99 87 33 27 28
94 95 98 100 99 100 98 100 98 95 94 95 95 95 95 94 99 99 99 98 98 99 99 100 100 100 100 99 100 100 100 100 100 100 100 100 96 64 28 27 22 19 15
87 91 92 92 93 92 95 98 98 98 98 99 99 97 97 95 95 95 96 98 99 100 100 99 100 100 99 99 100 99 99 100 98 86 40 29 27 24 20 19 20 30 73
94 93 87 88 89 88 91 88 92 99 100 100 100 100 100 98 95 98 99 99 99 98 100 98 98 99 98 99 100 97 80 36 29 28 25 19 14 18 32 63 97 96 80
97 99 96 92 90 89 91 96 99 99 99 97 98 97 99 100 99 100 100 100 98 98 98 98 98 93 69 36 27 29 32 29 25 17 14 25 28 28 40 67 81 71 57
90 99 98 99 97 96 95 94 95 99 94 89 90 93 99 98 98 99 100 99 92 70 49 38 34 32 43 40 31 23 19 16 18 23 24 25 30 31 35 52 60 48 40
82 90 95 99 98 98 100 92 96 98 94 87 84 77 58 44 39 37 37 36 34 30 26 25 26 29 29 26 22 19 20 24 24 28 35 36 41 45 40 35 35 36 37
80 83 90 91 95 97 92 88 73 68 63 51 40 33 33 34 35 34 32 27 23 22 22 21 21 20 16 16 19 28 33 32 40 42 39 37 36 34 36 36 36 40 54
79 81 87 89 82 78 78 69 65 63 53 38 31 32 33 33 32 28 23 22 20 19 18 16 14 15 18 23 23 27 59 90 74 40 39 38 39 42 42 42 50 67 76
83 84 87 91 81 73 66 61 60 56 49 34 31 33 33 32 28 23 22 21 20 18 16 13 14 19 24 27 34 40 41 41 43 41 38 40 39 39 42 57 76 82 85

GFSMW_850_rhum_039.txt.gz
RH
21 28 33 34 34 35 36 36 38 37 39 50 67 83 54 32 48 56 59 99 100 100 97 94 90 91 92 88 93 86 69 70 70 67 70 68 70 50 43 39 41 34 26
25 28 31 36 34 30 33 37 38 40 36 35 43 62 60 34 33 43 55 58 69 84 99 84 82 85 84 93 94 82 72 70 75 71 74 66 66 70 44 36 40 38 31
25 33 37 42 46 40 27 27 30 36 39 39 40 44 70 88 80 52 47 48 64 77 99 94 96 93 89 84 86 84 72 63 74 80 72 69 61 53 52 39 37 38 38
37 42 45 50 52 43 30 28 28 27 26 31 40 45 56 77 89 91 85 72 62 56 94 92 97 98 92 93 73 71 73 69 71 85 77 75 56 48 49 47 40 39 38
44 46 53 57 55 49 34 31 29 29 29 26 27 33 42 60 78 88 86 85 90 58 50 91 100 93 82 88 83 80 69 68 72 86 74 80 77 65 50 44 43 39 36
44 49 55 59 57 61 47 40 37 38 34 29 30 32 41 62 72 78 79 79 86 94 84 72 99 100 95 76 68 88 83 74 75 89 83 76 75 78 67 50 45 42 42
43 50 58 62 63 64 53 52 54 52 52 50 46 52 46 47 65 75 80 84 86 91 89 81 97 100 99 100 96 100 99 83 83 91 83 79 80 81 82 67 52 45 46
45 56 63 64 66 70 70 69 69 68 70 70 63 60 62 61 58 50 59 83 84 83 84 85 70 91 99 99 99 100 100 100 98 94 99 87 85 86 83 93 72 47 45
50 60 64 65 69 72 74 75 75 75 76 78 72 74 72 74 68 58 62 73 83 89 89 90 94 73 88 99 99 98 98 100 100 100 100 100 98 93 99 98 71 49 47
57 63 64 67 74 78 81 82 82 81 78 70 77 78 80 75 68 54 52 61 70 64 97 96 100 98 100 99 99 98 100 99 100 100 100 100 98 100 99 78 62 66 60
62 65 67 70 78 84 86 88 88 73 68 66 66 74 83 84 74 54 48 43 38 37 46 75 96 98 100 100 98 99 100 100 100 100 100 100 100 100 100 96 96 89 95
66 67 68 70 82 84 80 92 94 87 83 77 76 85 88 93 98 66 53 55 55 56 58 60 67 77 97 99 97 100 100 100 99 100 100 100 100 100 100 99 98 100 90
66 68 69 71 85 84 80 88 98 92 84 83 82 85 87 93 95 72 65 65 71 71 71 76 84 80 88 86 98 99 99 100 100 100 100 100 100 100 100 99 94 90 92
67 71 74 76 91 99 98 98 100 99 93 92 91 91 92 86 80 75 73 72 71 74 82 78 71 65 71 78 94 98 100 100 100 100 100 100 100 99 93 90 94 98 100
69 74 79 84 95 100 100 95 97 100 97 93 90 95 92 88 86 87 88 85 82 88 90 86 89 99 99 100 100 100 99 100 100 100 100 100 99 98 98 98 97 99 100
72 78 82 94 100 100 100 98 94 99 98 96 98 98 98 93 87 89 91 98 99 99 100 100 100 100 100 100 99 98 99 100 100 100 100 99 100 99 100 100 100 100 98
77 82 90 97 98 99 98 100 99 97 95 98 97 94 91 91 80 85 88 95 99 100 100 99 100 97 97 92 95 97 98 98 99 100 100 100 100 99 100 100 99 91 45
82 87 92 99 100 98 100 99 98 97 97 97 96 92 87 89 93 99 100 100 100 98 98 98 94 93 96 100 100 99 100 100 100 99 100 100 100 98 78 38 22 20 20
85 80 93 86 81 86 97 100 100 99 100 98 94 90 90 93 93 93 95 98 99 97 95 96 98 97 98 100 100 98 99 99 99 99 97 58 29 24 19 14 15 34 60
80 87 92 77 81 87 94 97 95 96 94 96 95 94 92 92 96 96 97 98 95 92 92 92 95 95 95 98 97 98 90 46 27 28 28 20 12 11 16 24 82 99 99
87 91 85 81 83 87 94 92 89 86 89 91 94 94 90 90 95 96 98 94 93 94 94 90 78 68 52 26 22 24 30 26 24 21 19 21 25 31 40 50 65 82 66
90 93 92 92 89 88 86 88 85 83 85 87 91 91 90 89 94 92 91 75 54 37 32 28 27 28 28 25 22 17 14 13 16 25 31 37 28 30 33 41 51 40 32
91 92 93 93 92 92 87 77 76 77 82 77 68 59 52 41 38 36 35 33 30 27 24 24 25 23 21 17 15 14 18 21 25 26 26 31 36 35 31 28 27 29 31
86 88 90 90 88 80 79 74 65 60 56 47 36 33 35 34 33 30 27 23 22 21 21 20 20 17 14 15 18 24 32 36 46 70 63 33 31 29 28 31 32 33 40
83 85 86 88 82 77 74 68 59 54 46 34 31 32 32 32 29 24 21 19 18 18 16 15 13 12 21 20 19 22 28 36 51 35 41 42 44 41 43 41 42 56 73
83 82 84 86 83 76 75 68 58 51 43 32 30 30 30 29 25 22 19 18 18 17 16 12 11 12 15 18 22 26 31 35 39 40 55 59 61 58 59 56 64 80 82

GFSMW_850_rhum_042.txt.gz
RH
20 20 24 27 30 30 32 32 33 34 36 38 60 79 80 58 57 44 59 65 91 94 82 77 78 88 88 87 86 93 98 85 75 67 62 54 60 65 64 56 46 40 38
21 26 29 30 29 28 30 30 32 34 36 36 38 50 63 72 62 53 44 44 63 84 88 76 66 67 87 93 93 90 87 86 77 68 64 54 59 68 69 61 54 44 38
26 26 34 41 42 38 32 30 32 34 35 38 40 41 43 51 84 75 48 32 38 62 71 94 86 68 75 86 94 85 87 88 80 72 63 68 70 65 64 69 62 47 42
32 38 43 47 53 49 34 30 28 28 28 30 39 41 42 42 50 78 78 69 60 50 54 80 90 100 87 77 77 86 80 96 88 76 70 70 68 64 60 59 55 48 47
39 44 51 53 56 53 42 36 34 34 34 28 29 28 31 36 42 62 77 88 86 76 65 74 88 99 99 99 77 86 87 77 86 82 73 71 76 66 60 55 54 48 45
43 48 54 58 59 56 49 46 45 45 47 49 40 36 35 32 35 50 64 76 85 85 86 83 92 98 98 99 97 100 99 99 90 84 89 79 76 81 66 63 63 55 52
43 48 57 61 63 61 56 54 56 54 57 57 54 52 56 56 49 46 71 74 69 81 85 84 90 89 88 94 96 93 98 99 98 100 98 93 87 90 87 74 63 61 55
44 54 61 63 64 66 68 66 65 67 70 69 64 62 61 64 63 61 53 57 75 80 84 87 89 91 95 96 94 92 92 95 98 99 100 100 99 95 96 87 78 62 60
47 58 62 63 64 70 73 76 76 77 76 70 66 70 69 68 67 64 61 60 62 66 73 82 92 92 98 99 97 93 88 91 96 97 99 100 100 99 98 95 87 80 92
52 61 63 65 67 76 79 77 79 81 76 72 68 69 75 82 82 79 64 55 50 61 59 56 65 90 90 97 98 97 96 96 97 99 98 100 100 100 100 100 100 97 97
59 63 66 67 73 80 80 81 87 80 75 71 71 75 87 90 97 81 61 53 50 47 44 44 55 75 97 98 99 99 100 100 100 99 99 99 99 100 99 100 100 100 98
64 66 68 68 72 79 81 83 91 90 82 81 80 83 90 97 99 99 72 58 56 57 55 55 58 72 97 100 100 99 97 99 98 99 100 100 100 100 100 100 100 100 100
64 67 69 69 76 82 90 89 87 84 82 86 87 90 87 87 95 87 76 69 66 64 66 64 58 60 74 84 84 79 71 96 96 98 99 99 100 100 100 100 100 100 99
65 69 74 75 81 90 100 95 88 86 88 88 87 89 87 88 87 86 84 81 78 74 74 77 81 79 84 85 94 99 98 98 100 98 99 100 99 99 100 100 100 98 97
66 71 76 81 88 95 98 100 91 96 94 95 89 95 93 91 90 84 86 88 87 92 88 94 92 91 94 100 99 97 99 99 99 99 100 100 97 98 99 99 100 100 100
70 75 80 85 94 98 99 99 99 100 100 96 95 97 95 91 88 86 87 89 89 94 100 99 99 99 98 98 92 93 97 100 99 99 98 100 100 100 100 100 100 100 100
74 78 77 76 99 100 100 99 100 99 98 93 92 93 90 96 94 95 93 84 82 91 94 93 94 93 92 92 91 92 92 95 99 100 99 98 99 100 100 100 98 98 98
74 77 70 76 83 83 100 99 96 92 94 96 96 95 96 97 100 100 95 92 91 91 90 92 91 89 92 98 99 99 99 98 98 99 98 98 98 98 99 95 62 33 22
72 68 66 72 71 89 89 99 100 99 100 99 97 95 96 96 96 94 95 92 89 90 88 89 89 90 91 97 95 97 96 99 100 99 97 80 53 33 23 21 22 40 63
74 65 70 65 72 86 90 83 87 91 95 98 97 94 92 91 88 88 87 88 87 86 88 87 88 89 92 94 87 64 32 25 24 28 25 22 21 18 28 39 46 74 86
73 70 67 67 76 91 89 75 77 80 86 86 85 84 87 89 90 91 92 90 78 61 42 28 27 27 23 21 19 17 18 18 21 25 28 25 26 27 28 28 37 51 55
75 74 71 72 81 92 90 76 76 81 82 82 81 81 79 76 65 59 46 32 28 24 22 21 21 20 21 18 14 12 14 17 22 26 30 33 29 30 29 29 31 33 34
76 80 76 77 85 90 76 69 72 72 66 57 43 38 35 32 33 31 30 27 23 21 20 18 17 17 15 14 15 18 19 21 22 26 26 28 32 31 28 28 27 28 29
78 80 82 82 83 79 72 65 59 54 46 37 30 29 30 30 30 27 23 20 19 19 18 16 15 13 13 15 19 21 24 26 33 37 39 33 34 32 34 35 36 35 37
79 79 81 82 82 78 71 65 58 46 39 30 28 28 28 27 25 22 19 18 18 17 16 15 12 12 13 15 15 18 20 23 27 28 31 33 36 35 35 39 40 44 58
82 81 83 83 83 82 74 66 57 49 40 30 27 28 27 26 23 20 18 17 17 17 16 12 11 11 14 17 21 24 26 30 33 34 37 36 36 38 37 38 40 51 65

GFSMW_850_rhum_045.txt.gz
RH
22 21 22 24 24 24 26 32 34 36 43 69 79 79 74 69 62 69 72 74 76 78 88 88 86 90 84 77 80 88 89 88 95 97 88 65 60 57 56 59 59 58 55
24 27 28 28 27 28 27 29 32 33 34 36 38 42 49 60 68 63 63 65 65 71 75 80 91 87 91 87 84 85 90 89 90 98 89 65 61 62 58 59 62 62 58
27 28 28 29 29 28 26 26 26 28 29 30 34 36 39 43 46 53 59 60 63 59 60 71 76 91 92 96 91 82 72 73 84 83 90 64 63 58 55 57 62 64 62
28 40 42 39 38 30 29 27 26 26 28 31 35 38 39 41 42 43 46 50 61 61 63 64 71 77 76 85 93 98 89 79 74 90 94 88 67 63 63 61 63 67 64
37 42 42 41 46 39 40 36 35 35 32 30 30 30 30 33 39 42 45 55 71 79 72 72 67 72 76 77 86 86 100 90 84 78 83 83 83 71 68 66 64 66 62
44 45 47 53 58 58 55 50 47 47 48 45 44 38 34 33 33 32 34 41 53 66 80 78 74 76 85 87 85 81 92 100 97 90 94 99 90 79 73 70 70 71 68
41 51 57 60 60 60 58 59 58 59 59 55 55 57 55 52 52 50 47 41 65 78 84 86 88 90 87 88 93 87 82 87 98 95 98 96 100 97 90 83 76 72 70
46 50 56 60 60 62 64 64 64 66 67 67 64 64 64 67 62 61 58 58 53 64 70 78 70 73 84 84 92 100 94 92 96 98 99 99 99 96 100 99 98 89 80
51 55 60 62 62 64 68 70 71 72 71 66 62 61 65 69 70 67 64 60 57 56 56 65 74 75 78 82 84 84 89 89 88 87 89 85 81 89 96 100 100 100 97
50 57 62 64 63 67 73 76 76 72 68 68 67 66 69 80 85 77 73 65 60 57 54 56 62 61 61 74 82 83 89 89 90 88 89 100 99 100 100 96 100 100 100
56 62 64 65 65 68 72 76 76 70 68 68 69 70 76 89 91 94 81 63 53 49 48 47 46 47 58 81 79 74 88 95 93 96 91 94 97 100 99 100 88 100 100
59 63 65 66 67 68 72 74 74 74 73 73 79 79 81 90 97 96 88 74 61 55 53 53 50 47 50 62 96 98 100 100 93 92 91 99 99 97 98 100 99 99 100
62 64 67 69 70 73 77 78 82 83 83 80 83 82 81 84 87 84 86 82 75 72 68 65 65 62 58 55 68 76 74 82 96 100 100 100 100 100 95 99 100 100 99
63 65 68 73 76 79 82 86 87 89 86 82 84 86 86 85 87 89 89 87 84 79 79 81 77 76 73 72 78 78 88 85 99 99 98 98 98 99 98 99 100 99 99
64 66 71 75 79 84 88 98 100 98 98 92 90 86 86 93 91 88 87 87 87 83 87 85 80 80 81 78 81 87 92 98 100 97 99 99 99 98 98 100 100 100 100
65 69 74 77 79 84 98 100 100 100 98 92 93 96 95 92 88 86 87 88 91 96 96 93 91 90 85 83 84 84 87 95 96 96 98 99 100 99 99 100 99 100 100
66 71 73 72 79 85 89 99 99 100 99 99 96 91 91 91 87 84 85 88 95 96 89 86 82 80 82 86 85 90 88 91 95 95 98 98 99 100 99 99 99 99 98
69 72 68 67 72 77 97 100 98 99 98 94 93 94 93 89 87 98 96 96 96 90 86 83 84 82 85 86 86 89 88 90 95 98 97 97 100 100 99 98 86 63 46
69 69 66 66 69 71 85 98 100 100 96 91 88 88 88 89 93 96 96 92 86 83 82 82 85 86 87 92 91 83 86 84 89 80 59 44 28 21 18 16 18 27 43
71 65 65 67 64 65 71 77 99 100 85 83 79 81 89 91 88 88 85 83 82 80 74 64 55 45 28 21 19 19 20 20 19 16 15 16 14 18 22 22 29 38 60
70 66 68 68 64 70 67 72 84 96 92 78 74 82 88 85 85 84 80 59 33 24 22 21 21 22 19 17 15 12 11 11 13 16 20 26 27 26 28 31 36 48 66
73 69 67 68 67 67 65 71 78 86 86 79 81 82 78 67 56 41 29 25 21 19 18 20 19 18 16 13 13 13 14 14 17 22 28 33 33 32 32 32 32 30 32
73 72 71 71 71 71 64 66 74 72 71 64 50 45 39 32 28 26 23 20 18 17 18 18 17 16 14 14 16 17 17 19 22 27 30 36 39 37 32 31 32 33 33
77 74 75 73 68 67 62 52 52 58 49 37 32 29 29 27 26 24 21 19 18 17 16 15 13 11 11 12 15 18 20 23 25 25 27 29 34 37 36 35 37 38 40
78 78 74 73 70 67 60 52 49 50 40 32 28 28 28 28 26 22 20 18 17 17 16 14 11 10 11 14 16 20 22 25 28 28 30 31 33 33 34 38 41 42 52
76 80 78 77 76 74 69 60 54 47 40 32 27 27 27 27 25 21 20 18 18 18 16 13 10 10 14 17 20 24 27 29 32 33 36 35 35 36 37 38 39 43 48

GFSMW_850_rhum_048.txt.gz
RH
24 23 24 25 24 24 24 36 39 39 39 44 64 79 82 81 76 77 82 84 81 85 86 85 88 91 86 84 86 87 89 92 90 95 91 88 87 88 80 60 55 54 56
26 26 26 27 26 26 26 32 35 35 36 39 45 68 76 69 66 70 77 76 76 78 80 79 80 84 90 88 86 83 88 89 85 95 96 88 85 85 80 68 59 55 56
27 28 30 29 29 30 29 29 29 30 33 34 36 40 42 47 53 51 47 58 68 72 74 74 75 77 81 84 84 87 88 84 78 83 98 86 85 76 64 59 57 56 57
28 29 29 28 29 30 28 26 25 24 27 30 32 33 36 39 41 43 44 44 43 44 49 64 76 72 74 79 81 83 84 94 95 88 97 100 87 74 67 63 61 58 56
29 33 37 37 35 32 29 27 28 28 28 29 28 29 30 31 32 35 39 42 43 45 53 68 74 77 73 62 72 83 90 91 96 98 89 96 99 97 95 83 75 72 68
42 43 46 45 41 40 41 39 40 41 38 36 35 35 35 35 34 33 32 30 31 36 46 52 70 67 79 87 86 84 84 88 88 96 95 100 99 97 94 90 87 85 78
47 49 51 53 50 51 51 50 50 49 48 47 48 51 51 50 46 44 42 39 40 37 42 65 74 72 79 88 88 88 93 92 93 93 96 99 100 100 100 100 96 94 92
45 48 51 56 57 56 56 56 58 57 56 55 56 58 58 57 58 59 60 59 56 53 49 54 74 80 81 90 91 85 88 88 91 84 92 98 97 98 100 100 100 100 97
45 53 56 58 59 59 59 61 63 65 65 63 60 58 60 65 66 65 68 69 67 64 62 59 60 64 72 78 76 70 82 86 90 83 84 93 100 100 100 100 100 100 100
51 58 60 61 62 62 62 66 70 70 67 63 61 64 64 67 72 74 74 71 65 61 60 58 55 55 59 61 62 65 81 87 92 86 87 80 88 99 91 95 98 100 100
54 59 62 63 65 66 68 72 73 73 71 68 66 67 72 77 82 88 77 77 68 58 55 54 52 50 49 48 48 54 61 66 78 79 92 96 96 86 91 94 90 96 99
55 59 62 64 65 66 68 69 73 75 74 73 71 74 78 82 87 92 78 78 77 69 64 61 58 55 52 52 53 56 64 73 96 95 92 99 98 97 98 99 100 100 100
60 63 64 65 66 68 71 73 77 79 80 80 79 80 80 81 83 87 85 81 80 77 73 71 71 69 67 64 62 60 58 66 73 77 93 99 97 98 98 99 98 99 99
60 64 66 67 69 72 76 78 79 82 86 84 81 82 85 87 86 87 86 86 83 79 80 80 81 78 74 71 69 75 78 82 91 100 98 97 95 94 93 96 99 100 100
65 64 65 67 71 75 79 82 88 100 96 92 88 87 88 89 92 91 86 84 85 82 80 78 75 77 75 76 80 83 82 85 95 99 94 97 93 97 95 97 100 100 99
63 65 67 70 73 74 79 87 99 99 100 100 100 100 99 96 94 88 87 89 89 88 83 82 82 81 77 77 77 79 81 85 89 88 90 96 95 95 96 95 98 99 100
60 63 66 70 68 70 76 91 98 99 99 100 98 99 100 94 89 89 89 88 86 83 82 80 80 80 78 79 78 80 82 86 88 90 92 94 97 99 98 99 100 97 98
60 65 67 65 63 64 71 95 98 100 100 100 100 98 96 95 93 92 88 86 84 82 80 77 76 75 76 80 80 81 85 84 85 88 88 89 90 90 87 86 65 46 39
60 66 64 62 61 61 70 94 97 100 97 98 98 97 96 96 93 90 88 83 80 78 77 75 75 66 44 28 18 17 18 19 19 19 18 16 15 13 12 12 14 19 28
65 65 60 62 63 62 71 94 95 94 78 84 94 93 93 93 90 84 80 79 79 62 40 27 20 17 16 14 13 11 12 12 11 11 12 14 17 19 20 18 21 23 30
68 66 63 63 63 63 72 77 76 80 66 74 80 82 85 85 85 81 74 45 26 22 20 18 17 16 14 12 10 9 11 12 13 16 19 22 20 20 22 24 24 27 28
71 66 65 65 65 65 69 68 69 67 64 71 74 83 86 82 70 42 26 22 20 19 17 16 15 13 11 11 12 14 15 14 18 24 25 27 24 24 26 29 30 31 28
73 69 67 67 66 64 65 64 64 59 56 63 65 60 56 41 26 24 23 21 19 17 17 16 15 12 10 10 12 16 17 21 22 24 28 34 35 36 35 34 32 32 33
76 75 73 74 70 68 62 60 49 46 42 36 31 33 32 26 25 24 22 20 18 17 16 15 13 10 9 10 13 16 19 23 26 29 32 33 33 38 38 36 37 39 40
82 79 78 77 74 70 62 49 44 37 35 28 26 25 26 27 26 24 21 18 18 17 16 15 12 9 10 12 15 18 21 24 28 38 36 36 34 33 32 33 36 39 43
87 85 79 80 78 77 70 59 51 41 37 31 25 24 25 26 26 24 20 18 17 18 16 16 11 9 11 15 18 21 24 28 32 34 36 38 34 32 32 32 32 35 38

GFSMW_850_rhum_051.txt.gz
RH
30 28 27 27 26 27 29 33 40 49 72 81 73 85 82 84 86 82 80 82 86 89 90 93 93 92 90 90 94 97 94 92 92 95 92 90 89 88 89 87 82 81 80
29 27 25 24 26 26 26 26 28 41 45 48 45 51 59 67 71 81 85 85 87 89 90 89 85 80 86 85 86 90 94 91 93 92 87 98 88 83 81 79 77 70 80
28 26 25 27 28 28 28 30 33 35 36 37 37 39 43 53 63 64 64 66 73 80 86 84 86 87 86 88 81 86 89 91 89 91 95 98 85 83 76 69 66 62 61
31 28 27 28 31 31 31 30 30 29 29 29 30 33 36 39 41 42 42 43 46 46 50 51 53 58 65 72 74 75 74 84 88 93 96 100 100 99 93 83 80 68 68
32 29 29 31 32 32 31 30 29 29 29 29 30 32 33 34 34 35 36 37 40 42 43 44 45 49 62 66 71 72 65 80 86 92 98 100 99 100 100 100 89 88 91
32 32 36 36 35 35 36 34 32 32 34 34 36 40 43 41 38 36 35 35 34 34 36 36 38 42 52 71 74 83 89 86 85 91 98 100 100 98 96 98 93 92 89
32 40 42 42 42 42 44 46 44 44 44 44 46 48 50 49 48 46 46 47 46 46 45 45 48 55 68 67 70 92 92 92 90 88 96 97 94 99 100 100 99 100 94
42 44 47 48 48 50 52 52 50 49 50 51 52 52 52 53 53 53 54 58 59 58 55 53 54 58 70 80 90 96 98 88 79 76 96 89 83 93 97 98 100 98 97
51 51 52 54 55 56 57 56 54 53 56 58 59 58 55 54 56 61 64 66 65 63 62 60 58 58 60 67 75 86 92 92 89 71 84 87 92 87 82 92 97 100 100
52 55 58 58 57 59 59 59 59 62 63 64 64 61 60 61 65 69 73 73 73 68 60 56 55 56 57 56 60 67 77 79 83 90 94 98 98 100 100 98 97 99 100
49 54 57 59 61 62 64 63 65 66 66 68 68 65 67 71 76 83 84 80 75 76 65 61 59 57 55 54 54 55 59 66 73 76 79 86 90 99 98 99 98 97 98
46 54 56 58 61 65 66 66 67 69 72 74 72 71 73 78 83 87 88 82 78 78 74 69 64 60 58 56 55 55 54 55 65 83 96 95 99 99 98 99 96 97 95
58 61 60 62 65 67 68 69 72 75 77 80 80 78 79 81 83 83 85 83 80 79 76 74 72 70 69 66 63 63 64 64 64 68 72 77 88 97 98 97 95 95 91
55 56 62 64 66 67 69 72 76 77 78 84 88 84 83 85 87 86 86 86 85 85 82 80 78 76 73 71 70 71 76 81 83 89 92 94 96 93 90 88 88 88 95
58 57 58 63 65 67 71 73 75 81 98 98 94 90 89 87 91 94 91 88 88 85 83 84 81 79 77 74 75 77 80 84 87 90 96 98 98 94 93 93 92 94 94
52 56 62 65 65 68 72 73 79 98 99 99 100 100 100 99 94 94 93 90 90 88 90 89 83 77 72 70 70 73 74 75 77 80 85 88 91 93 95 98 99 96 98
49 57 60 63 66 69 68 72 82 98 100 99 100 100 100 100 100 95 94 92 92 88 85 80 76 72 69 70 69 71 73 73 76 81 87 90 91 94 96 95 93 91 90
52 58 60 64 67 63 63 70 83 97 100 100 100 100 100 100 100 98 99 91 86 83 79 73 72 72 65 49 29 21 16 14 16 17 17 20 21 17 14 14 15 16 19
51 55 60 66 63 60 62 69 85 93 99 99 100 100 100 100 100 100 90 85 80 75 74 64 39 19 14 14 12 10 9 8 8 8 10 11 13 15 12 15 15 18 20
53 57 64 66 60 60 63 68 80 88 92 92 90 98 100 100 99 89 81 77 76 57 26 17 16 14 12 10 8 7 7 8 8 10 12 15 16 17 18 16 20 22 24
55 64 67 60 60 61 62 63 69 74 74 74 85 91 92 92 84 80 77 52 25 19 17 15 14 12 10 9 8 8 9 11 12 14 16 19 20 19 20 22 22 27 29
66 69 67 62 62 62 61 63 62 69 71 72 78 77 74 76 79 67 32 22 18 18 17 15 12 11 9 8 9 10 12 13 15 18 20 22 21 21 23 24 26 27 26
71 72 66 65 65 63 60 61 63 66 72 70 72 71 70 65 43 24 24 19 18 17 14 15 13 11 9 10 10 12 15 17 17 20 22 25 26 26 27 29 29 26 29
70 75 72 69 69 68 64 61 66 64 64 62 57 49 43 32 24 22 21 19 18 15 15 15 14 11 9 10 12 14 17 19 22 24 26 29 29 28 29 30 30 30 32
87 85 79 78 73 74 72 65 61 61 51 48 39 33 29 27 26 24 22 20 17 16 15 15 15 11 9 10 13 16 18 20 22 23 26 28 30 29 29 29 29 30 33
89 89 87 88 90 84 78 71 57 55 51 42 33 28 26 26 26 26 23 19 17 16 17 16 16 11 9 12 15 17 20 21 26 25 24 26 28 29 28 28 28 29 30

GFSMW_850_rhum_054.txt.gz
RH
36 36 30 28 28 32 43 48 60 68 76 77 79 83 81 81 82 82 83 83 82 86 91 94 95 95 95 93 91 94 95 93 94 100 96 92 91 84 79 83 80 78 77
37 34 30 28 27 27 27 31 41 49 55 64 77 87 77 77 80 82 84 87 88 86 90 92 94 96 93 92 87 87 90 92 90 98 100 99 95 94 78 71 71 73 75
32 31 30 28 26 26 28 27 28 31 39 57 65 70 65 58 60 72 84 89 92 91 91 90 88 88 92 86 84 84 86 88 80 87 97 98 85 82 83 84 81 83 76
33 34 30 28 25 28 30 31 32 33 34 36 36 37 37 37 39 42 50 59 58 56 57 56 55 59 61 64 67 74 77 78 80 78 79 98 100 99 97 88 85 85 78
34 33 31 30 29 30 31 31 31 31 30 30 29 29 29 30 32 35 36 37 38 38 40 42 43 44 46 47 50 59 77 78 83 93 97 99 99 97 100 100 94 84 85
32 33 31 35 34 33 33 32 31 31 32 32 32 33 35 35 35 34 34 34 33 33 33 33 34 34 35 38 43 59 86 89 89 94 95 97 100 98 100 100 99 99 86
34 35 33 37 40 39 38 37 38 39 40 41 42 44 45 45 45 45 45 45 46 47 47 46 44 43 42 46 54 59 64 80 90 81 88 89 87 86 93 97 94 94 92
28 35 34 37 41 43 45 46 48 48 49 49 51 52 52 52 51 50 50 52 55 57 56 58 59 58 55 56 66 85 82 83 93 90 83 89 82 76 92 100 100 99 94
32 37 46 50 51 51 53 54 54 54 56 57 58 59 58 57 55 54 57 61 64 64 63 60 60 63 63 63 66 74 87 80 87 82 82 86 98 87 86 99 98 95 100
47 57 60 58 56 55 56 57 58 59 60 61 61 63 63 60 58 60 66 70 70 69 69 64 58 58 59 61 62 64 69 71 88 95 98 99 100 99 99 98 94 99 95
59 61 61 61 61 59 58 58 61 61 62 62 62 65 67 65 66 71 76 77 76 71 74 67 61 60 59 57 58 59 63 69 76 83 83 80 86 99 97 98 98 97 94
57 58 58 60 61 62 62 63 62 62 63 65 68 70 71 72 76 81 84 83 83 79 76 74 69 66 64 62 61 60 60 60 63 66 73 85 84 94 99 98 98 95 93
53 61 63 60 63 63 64 64 64 65 67 68 71 76 77 78 81 83 84 85 83 81 80 78 77 75 73 71 69 68 68 69 69 70 75 80 84 89 95 95 94 93 92
51 56 62 61 60 63 64 67 68 71 72 71 74 83 86 85 86 87 87 87 87 87 86 83 81 78 74 74 74 75 77 78 80 84 86 89 91 91 88 86 83 88 90
55 55 56 58 62 63 66 69 71 73 74 82 95 96 94 92 90 93 95 95 92 89 85 82 80 77 75 75 77 78 80 82 82 81 82 82 85 86 86 87 86 88 89
46 49 54 58 59 65 68 72 73 74 82 98 99 100 100 100 100 98 99 98 94 92 90 89 83 77 73 69 72 73 74 73 73 74 76 79 81 83 84 85 86 86 89
41 44 47 51 60 64 67 71 69 73 88 100 99 99 100 99 100 100 100 100 98 98 94 87 81 76 73 75 74 72 62 46 38 35 30 28 32 26 19 17 21 34 31
38 45 47 55 61 63 67 65 65 75 93 100 100 100 100 99 100 100 100 100 99 94 88 80 78 76 63 29 13 12 10 9 8 7 7 8 10 10 10 10 12 14 16
35 44 49 58 61 64 65 62 68 82 96 100 100 100 99 99 99 100 100 97 89 84 77 72 39 16 13 11 9 7 6 6 6 7 9 10 13 14 10 13 14 16 17
38 45 54 58 61 65 60 62 68 80 91 99 100 100 100 100 100 99 92 83 78 74 42 17 14 12 10 8 6 6 7 8 9 10 12 15 15 15 17 15 16 18 20
49 55 57 59 65 61 60 62 66 71 84 90 94 98 100 100 96 82 76 76 49 21 15 14 13 11 9 9 8 8 9 10 11 13 14 16 16 15 17 17 19 22 19
52 55 61 66 64 61 61 61 64 67 71 75 79 89 96 92 84 79 70 28 20 17 16 14 13 12 10 9 9 10 10 11 12 14 15 16 16 16 18 20 24 23 23
64 67 70 69 64 68 62 62 66 68 69 72 73 78 81 78 78 66 26 19 17 16 15 14 14 12 10 10 9 11 13 14 14 14 16 17 20 23 23 24 24 24 25
65 70 72 69 66 66 66 66 69 70 68 69 68 68 74 74 56 28 22 20 18 17 16 15 15 14 11 10 10 12 14 16 16 16 17 21 22 25 24 23 24 24 24
81 82 84 77 72 75 72 72 67 69 69 67 65 62 60 56 35 27 24 22 20 18 18 16 16 15 12 10 10 12 13 14 16 16 20 21 21 23 24 24 24 25 25
85 87 90 93 91 94 89 82 75 62 62 63 58 51 45 37 32 29 26 23 21 19 17 17 17 16 13 10 11 13 14 14 16 19 20 21 22 21 23 24 25 26 26

GFSMW_850_rhum_057.txt.gz
RH
38 37 33 31 32 60 61 53 58 65 73 75 76 78 76 77 80 80 82 84 86 88 88 88 88 90 94 93 92 95 91 86 88 95 87 78 86 86 90 83 76 76 75
36 38 37 36 30 29 34 38 40 48 55 59 61 64 67 72 76 76 80 83 85 88 91 93 88 90 92 92 92 95 94 91 87 94 98 97 81 80 76 81 82 78 78
35 36 36 33 32 29 28 27 30 35 45 52 56 60 66 75 80 68 66 74 79 82 85 92 92 91 91 87 86 93 93 91 89 93 96 96 82 85 89 82 80 79 80
40 42 39 32 31 29 28 28 29 32 35 38 44 57 63 60 53 49 46 47 55 70 82 82 76 70 66 62 64 69 76 88 89 85 81 85 93 100 98 88 84 82 78
39 38 34 30 31 30 31 33 33 34 35 35 35 35 34 33 32 32 33 34 37 40 41 41 42 42 43 45 47 49 51 60 85 94 87 87 98 97 100 100 93 86 87
35 35 34 32 31 33 35 35 34 33 32 32 31 30 30 30 31 33 34 36 37 37 36 36 36 36 36 35 35 36 39 46 75 99 89 87 98 95 98 100 99 94 86
35 33 36 34 31 32 36 38 36 36 34 34 34 35 36 36 37 39 40 40 42 45 46 47 48 48 46 44 43 42 45 55 56 79 91 91 97 100 100 98 96 99 98
28 28 37 36 33 32 37 40 40 40 39 39 40 42 45 46 46 46 47 46 46 47 48 50 51 52 54 55 55 54 58 85 86 96 98 94 89 99 99 100 93 94 94
29 31 31 39 40 44 44 46 45 43 42 45 48 50 52 54 54 53 51 52 54 55 55 55 54 53 54 57 61 62 71 92 100 100 99 96 80 81 87 98 94 90 100
30 36 38 48 54 55 54 51 49 50 52 52 53 55 55 57 59 59 59 62 64 63 62 60 61 58 56 56 59 64 66 73 91 98 94 97 88 89 92 99 96 97 96
40 44 54 65 64 59 55 54 55 56 58 58 58 58 58 59 62 64 66 69 70 69 67 65 67 63 60 59 61 62 65 68 71 77 79 82 93 98 98 98 98 98 96
56 62 67 66 63 61 58 58 58 61 62 62 62 65 67 69 69 72 76 78 78 77 74 73 73 71 69 68 65 65 65 66 67 73 74 65 68 84 92 97 100 96 93
66 68 66 61 59 60 59 58 61 63 64 65 67 69 70 74 77 79 80 80 81 82 79 79 78 77 75 75 74 73 72 73 74 73 73 77 81 84 87 88 89 94 94
58 60 63 60 60 60 62 63 64 66 66 68 69 69 74 80 86 87 87 85 83 84 85 85 84 82 79 77 77 77 78 79 81 81 82 82 84 86 86 86 87 86 87
51 53 53 57 61 62 61 64 66 68 70 68 70 76 88 91 92 92 92 91 92 91 88 83 79 79 79 79 79 79 79 82 81 80 78 76 76 79 81 82 83 82 83
42 44 49 54 57 59 61 65 68 69 70 68 78 99 100 100 98 96 96 100 100 96 91 89 84 80 75 72 72 72 72 71 71 71 68 67 67 67 66 63 55 52 61
42 47 47 49 53 56 61 66 69 72 69 74 91 100 99 100 100 100 100 100 100 100 97 91 83 77 72 70 69 66 50 29 23 17 13 13 12 9 10 9 9 10 9
37 41 44 48 54 60 64 67 68 67 68 78 98 100 99 99 99 100 99 100 100 100 96 86 79 75 66 32 13 10 9 8 7 7 8 8 8 9 9 10 11 12 13
34 35 40 45 52 60 63 66 68 63 71 81 99 99 99 99 99 100 100 99 100 99 89 81 60 19 12 10 8 6 7 8 9 10 11 11 11 11 11 12 14 15 16
37 35 39 48 52 63 64 68 63 64 72 85 100 99 99 100 99 100 100 100 99 87 76 38 15 12 10 7 6 7 9 10 10 12 13 15 14 14 13 14 16 16 18
42 39 48 49 60 64 66 64 62 63 77 90 99 99 100 99 99 100 100 96 86 63 23 14 13 11 10 9 7 8 10 10 11 13 14 15 17 17 18 15 18 16 17
56 57 61 65 64 66 66 61 62 69 76 83 96 100 100 99 100 100 89 85 53 22 16 15 15 12 11 9 9 9 10 10 12 15 15 15 15 17 19 21 21 19 20
60 62 64 66 70 69 63 64 65 68 73 77 86 95 99 100 99 87 82 35 24 21 18 16 15 14 12 10 10 10 11 12 13 15 15 15 17 19 22 22 21 22 22
67 69 70 71 71 67 68 73 68 68 72 73 77 85 91 90 82 80 45 25 20 17 17 16 15 15 14 11 10 11 12 14 15 15 17 19 19 20 20 22 22 23 22
74 77 78 78 75 71 72 73 69 67 68 69 72 73 74 73 72 51 27 22 22 19 18 17 16 15 15 12 10 10 13 14 13 12 17 20 20 19 19 20 21 22 22
80 85 88 90 93 92 89 90 88 82 68 67 63 64 66 62 56 36 26 24 23 20 19 18 16 17 16 15 10 10 13 13 13 14 19 21 20 18 18 20 20 22 22

GFSMW_850_rhum_060.txt.gz
RH
41 41 41 35 45 62 62 65 66 66 71 68 73 76 72 76 79 80 80 84 85 87 87 87 89 89 87 88 95 98 98 94 97 88 87 96 89 76 69 86 88 78 76
39 40 40 40 36 31 43 57 55 62 68 67 73 74 75 76 82 81 84 86 87 88 87 87 86 87 88 84 85 92 95 94 93 97 100 99 76 76 78 76 79 79 76
39 41 40 39 34 33 30 29 44 54 55 58 56 61 62 61 67 69 79 73 69 72 77 78 81 84 92 91 96 97 97 99 98 91 100 92 72 79 82 85 77 83 78
48 46 42 39 36 34 30 30 28 31 42 49 52 56 63 62 56 69 70 68 58 55 55 60 70 86 93 88 79 71 72 89 95 99 95 97 99 98 94 93 83 79 80
46 43 38 37 36 32 29 30 29 29 34 44 48 48 50 47 42 39 38 36 34 34 34 37 41 43 43 43 42 43 45 50 58 73 98 98 100 99 100 99 87 77 79
40 36 36 36 36 34 31 30 30 32 36 39 38 35 33 32 31 30 30 30 30 31 33 34 35 36 36 35 35 34 34 35 39 47 78 97 99 99 98 99 99 98 92
36 38 40 36 35 34 32 30 31 34 35 34 33 32 31 31 31 32 33 36 39 41 41 42 43 44 45 46 47 46 46 45 48 56 64 75 98 99 100 99 99 97 95
30 31 39 46 36 35 33 35 35 36 37 36 35 35 36 36 37 39 42 44 46 48 48 49 50 51 51 52 55 57 58 61 76 96 98 99 98 99 100 100 100 99 98
32 32 28 30 46 37 36 37 42 42 41 40 40 40 40 44 46 47 47 48 49 51 51 51 52 52 52 52 54 61 63 68 99 96 92 94 99 100 100 99 92 93 99
33 31 27 28 39 50 46 48 50 50 47 45 44 44 46 49 52 53 53 54 54 56 58 57 54 54 55 55 55 59 64 76 98 97 96 99 99 100 99 100 99 92 98
48 40 42 45 52 56 61 60 57 55 54 52 52 54 53 54 55 59 63 64 64 63 64 63 62 63 63 61 60 60 64 70 78 96 91 97 94 92 97 98 95 97 97
62 50 73 69 60 63 61 60 58 56 55 56 59 59 58 58 60 64 67 72 75 74 73 73 69 69 70 68 66 63 63 64 66 71 76 77 75 67 71 85 96 94 98
48 66 74 77 70 65 60 56 54 55 57 58 60 61 64 65 66 69 73 77 82 82 79 79 77 76 74 74 73 71 71 71 69 69 68 67 68 71 75 80 86 87 88
62 57 69 66 64 62 60 58 57 57 58 61 62 63 65 66 72 78 82 84 84 84 83 82 82 80 79 78 77 76 76 76 75 74 75 78 77 78 81 84 85 85 86
59 68 56 66 63 60 58 58 59 59 62 63 65 66 64 70 79 86 92 93 91 90 90 88 85 80 78 78 77 79 79 80 80 78 76 74 69 68 74 74 77 78 76
49 61 70 60 55 54 55 57 59 62 66 67 69 65 72 85 96 99 97 100 100 99 96 92 87 84 78 76 76 76 78 76 74 71 65 55 41 37 26 24 30 27 31
47 51 50 47 48 52 55 58 61 65 68 70 68 70 81 98 99 100 98 99 99 100 100 96 91 82 77 72 72 68 69 59 38 26 16 10 10 7 8 8 8 8 8
49 49 46 41 45 53 56 60 64 68 69 71 69 75 92 98 99 99 99 99 99 99 100 99 87 81 76 74 59 26 13 9 7 6 6 8 8 10 9 10 11 13 13
50 47 46 46 44 49 57 59 64 68 72 67 73 84 100 99 99 99 99 99 100 100 100 92 82 76 36 13 9 7 7 7 7 8 9 10 10 10 12 11 14 16 16
51 47 42 42 44 50 57 62 66 68 70 68 76 88 100 99 98 98 99 100 100 100 98 88 52 18 12 8 6 7 9 9 10 11 12 11 12 11 10 13 16 17 19
49 45 44 45 50 53 60 65 65 68 67 72 81 92 100 99 100 100 100 100 99 100 94 62 20 14 10 8 7 8 10 11 13 13 13 13 12 12 11 12 15 19 19
56 54 52 55 58 62 67 66 67 66 69 74 81 90 99 100 100 100 99 100 99 96 58 24 18 14 12 10 9 9 10 12 14 14 13 13 12 13 12 14 16 17 18
63 65 65 65 67 68 68 70 66 66 68 72 73 80 97 100 100 100 100 97 90 55 23 18 18 16 13 12 10 10 11 12 13 14 13 11 12 14 17 18 18 18 19
67 68 67 68 69 71 72 69 70 70 73 72 71 76 93 100 100 99 94 85 48 25 20 21 19 17 15 14 12 11 12 13 14 15 14 14 14 16 17 18 19 19 19
72 74 76 77 76 73 70 71 74 73 73 73 71 73 82 95 98 91 83 60 26 20 19 19 19 18 16 15 13 11 10 13 15 13 14 18 17 17 16 18 19 19 19
77 77 81 84 88 89 89 88 81 78 83 77 76 75 78 80 84 80 71 35 25 24 22 21 19 18 17 16 16 11 10 13 14 15 18 20 18 18 18 18 18 18 18

GFSMW_850_rhum_063.txt.gz
RH
31 41 43 42 41 68 87 92 69 72 79 79 84 98 95 96 97 97 98 92 94 98 94 96 100 97 100 99 98 97 99 98 96 98 92 88 92 93 80 73 82 85 86
30 42 42 39 38 39 68 90 90 71 72 76 74 85 92 96 98 99 96 82 86 88 90 90 95 100 99 100 100 97 100 100 99 99 99 94 87 76 71 78 77 69 81
30 35 43 37 35 37 35 53 80 78 88 75 92 99 95 88 77 84 79 77 80 80 80 83 86 91 100 100 100 100 98 98 98 98 99 89 80 76 74 78 82 70 76
35 41 42 37 36 36 33 32 29 37 49 54 68 69 69 70 80 93 85 57 66 75 73 64 58 53 57 65 80 88 92 99 98 98 98 98 99 90 80 80 82 86 84
36 42 46 43 36 37 35 32 31 30 28 30 46 58 67 80 76 60 62 54 42 38 35 34 33 33 36 38 41 42 43 43 50 64 98 100 99 98 93 98 83 94 86
37 40 44 43 42 35 34 32 30 31 31 30 34 47 57 60 52 42 36 34 32 30 30 29 30 30 32 34 36 37 37 37 39 40 64 93 99 94 88 94 88 93 95
30 33 36 40 44 37 35 34 33 32 32 36 39 42 41 38 34 32 31 32 34 35 33 32 35 36 38 40 43 46 47 47 51 55 81 98 99 99 99 100 100 93 93
26 28 32 37 43 45 40 37 35 32 32 33 36 37 36 34 33 33 34 35 36 40 39 41 42 44 44 45 46 48 53 56 91 93 92 86 93 98 93 92 87 100 100
25 28 33 26 40 45 37 34 36 34 33 36 38 38 39 38 38 37 39 43 44 46 47 49 49 48 47 47 50 53 65 99 78 90 99 99 99 91 97 100 99 100 99
33 33 35 39 32 51 52 58 49 46 42 39 43 44 42 40 42 46 50 51 53 53 54 56 57 57 55 53 56 57 58 72 88 99 99 100 100 98 92 96 100 98 100
39 42 48 52 53 65 66 70 72 69 53 50 49 46 45 48 51 52 53 55 57 60 63 63 63 63 62 64 64 60 62 69 93 100 98 98 99 98 98 98 99 99 96
48 54 54 60 71 71 79 74 68 56 52 50 48 48 49 50 52 54 55 56 62 64 70 70 70 69 69 71 72 70 70 71 74 83 84 85 90 84 79 78 82 90 90
42 56 64 68 74 79 80 70 64 60 54 50 51 53 55 55 57 59 58 59 65 70 75 79 78 74 73 75 76 77 76 75 73 76 75 76 75 70 71 77 80 80 82
37 51 62 66 72 77 78 67 61 58 55 56 57 58 60 62 64 62 61 66 72 80 84 82 80 80 80 80 79 81 80 79 77 77 76 74 74 76 78 79 82 83 83
40 42 60 64 68 75 76 67 62 58 57 57 60 62 64 65 64 65 69 77 83 88 87 85 85 86 84 81 80 78 81 82 80 80 80 80 76 73 78 74 76 78 80
38 41 48 62 65 71 66 61 60 59 60 61 64 65 65 64 64 71 80 88 95 98 95 95 93 89 82 77 78 80 79 79 81 78 72 63 43 33 28 22 30 32 26
46 41 44 52 63 67 72 60 58 59 59 62 66 67 69 68 74 84 95 100 99 99 99 99 99 92 84 77 76 76 74 75 72 58 32 16 11 6 7 6 6 6 6
52 49 43 46 52 64 70 62 57 60 62 63 68 70 71 68 79 92 98 98 99 99 100 99 100 93 83 80 75 73 62 34 19 11 8 7 8 9 8 7 8 8 8
60 54 46 47 52 60 70 58 56 59 60 63 66 69 67 72 86 99 99 99 99 99 100 99 100 89 82 81 51 19 12 8 7 8 9 10 10 10 9 9 10 11 12
69 65 60 51 55 64 72 61 56 58 60 65 65 68 66 77 95 99 99 99 100 100 100 100 98 87 55 16 10 7 7 9 10 10 11 11 10 9 9 10 13 14 19
66 58 55 54 58 72 64 61 63 60 63 68 69 66 67 80 99 99 99 99 99 99 99 98 85 40 18 13 7 6 10 12 12 12 13 12 11 9 8 11 14 16 20
60 66 62 58 57 60 66 71 69 66 68 71 67 66 71 84 99 100 99 100 100 100 100 94 61 20 14 10 8 8 9 11 12 13 13 12 11 9 11 13 14 15 15
67 65 69 68 66 67 70 71 72 71 72 70 67 71 78 82 96 99 99 99 100 100 98 76 29 16 14 12 10 10 10 11 12 14 14 10 10 11 13 15 17 15 16
70 69 69 70 70 70 72 74 73 73 70 68 69 73 81 96 100 99 99 100 100 98 84 40 17 16 15 14 13 12 12 12 13 15 16 13 12 13 14 15 16 16 17
74 74 74 75 76 74 74 74 71 70 76 78 80 83 80 83 95 100 100 100 94 86 54 23 19 19 17 16 16 14 13 12 13 15 15 15 18 18 16 16 16 16 17
77 77 81 82 79 79 81 81 83 85 90 93 80 74 82 83 92 100 100 97 90 64 31 23 20 20 19 18 18 17 14 11 11 14 16 19 22 20 20 18 17 17 17

GFSMW_850_rhum_066.txt.gz
RH
33 36 44 43 51 78 89 89 74 73 81 83 83 91 86 97 92 90 93 94 96 95 94 88 98 98 98 98 99 98 95 94 92 92 96 95 89 92 86 89 88 76 87
33 37 40 40 40 52 83 92 86 72 75 77 81 85 90 91 91 95 98 98 91 93 96 95 94 98 98 96 96 98 91 90 90 90 90 89 79 76 67 78 85 80 79
31 35 37 39 40 42 54 82 94 81 72 76 80 86 92 93 93 92 97 97 100 98 88 80 89 98 99 95 97 98 97 92 86 85 93 94 78 77 78 76 80 80 76
36 40 43 42 39 40 43 50 88 97 80 73 75 71 62 81 85 88 88 85 60 66 72 79 79 70 60 56 54 59 76 94 95 87 96 95 93 94 86 75 76 83 82
37 36 41 43 39 37 35 34 34 50 84 71 62 54 69 84 90 96 94 84 68 66 51 42 36 34 32 31 31 33 36 41 45 48 75 93 92 92 97 91 86 78 85
36 34 40 42 40 39 38 35 33 31 32 44 75 54 54 69 73 79 80 70 48 34 32 30 30 29 30 31 33 35 37 39 43 45 44 79 93 98 98 99 99 93 90
32 33 39 40 43 42 38 37 35 32 29 30 33 48 45 43 46 57 48 38 34 33 32 30 32 33 36 40 43 46 48 51 52 53 72 99 99 90 91 100 96 95 96
26 28 33 39 40 40 39 37 35 34 33 31 32 39 35 39 42 37 35 36 36 37 34 35 38 42 44 46 47 48 49 54 59 68 87 94 100 97 94 90 91 87 100
24 25 28 28 37 45 42 41 38 37 36 33 36 38 36 33 37 35 34 34 36 38 41 43 46 48 50 51 50 50 51 55 63 66 78 84 98 99 97 94 83 98 100
37 37 31 32 29 42 47 47 46 44 44 46 42 43 33 34 35 34 36 38 40 43 46 48 50 52 53 53 52 52 53 58 70 98 98 98 92 99 97 100 86 100 100
40 39 43 42 38 40 53 55 60 59 58 54 52 53 54 41 38 40 42 43 44 48 50 52 55 58 59 58 59 56 60 62 75 99 98 98 98 97 99 100 92 90 96
36 43 42 44 46 53 62 66 72 70 65 58 54 52 47 44 43 45 47 48 54 53 57 58 62 65 64 66 67 67 70 70 70 85 97 99 100 99 96 93 94 93 94
36 39 54 59 61 61 70 74 73 70 65 63 61 54 50 47 51 54 54 56 58 59 59 66 70 72 72 71 73 76 76 78 78 79 77 82 86 82 76 72 71 79 81
36 39 43 59 65 65 67 71 74 73 66 61 57 55 55 56 57 58 57 59 57 60 67 70 73 76 78 77 77 79 80 82 85 84 80 76 76 75 75 77 79 80 81
42 38 38 47 63 69 72 72 68 66 63 63 61 59 59 60 60 60 61 58 60 66 72 78 84 83 83 82 82 83 83 83 85 86 86 83 79 76 75 76 75 76 75
47 46 44 42 56 66 70 73 70 68 65 62 62 61 60 61 61 63 60 62 72 81 88 91 90 88 89 85 82 82 86 85 86 86 88 85 80 66 57 51 39 39 34
52 52 50 48 46 60 67 65 68 64 60 60 59 58 60 61 62 62 59 67 80 98 99 99 99 100 97 88 81 80 86 85 86 80 76 56 27 12 8 7 6 6 6
59 58 53 50 46 47 62 66 66 66 63 64 63 62 64 65 68 62 66 80 94 98 99 99 99 98 100 88 82 81 85 85 78 52 23 11 8 8 9 8 8 8 9
63 61 56 57 50 50 54 64 69 68 65 64 64 64 67 68 69 64 75 90 99 99 100 100 100 99 98 90 85 83 62 31 16 8 8 10 10 12 10 8 10 9 10
67 61 58 54 54 48 56 58 64 69 66 66 67 67 66 68 63 67 81 96 98 98 99 99 99 100 94 89 60 20 11 9 9 11 11 12 12 10 10 9 9 12 11
74 68 63 58 56 60 60 64 70 72 72 75 74 70 69 68 64 75 89 100 99 99 99 98 99 99 84 38 12 8 8 10 11 12 13 14 13 11 10 9 9 11 13
78 73 68 65 63 67 72 74 74 72 77 77 75 74 70 63 66 80 91 99 99 100 100 100 100 86 38 17 11 7 7 9 12 13 14 14 13 11 9 10 11 12 13
71 80 73 69 67 68 73 76 78 80 80 78 77 74 68 65 72 81 92 100 99 98 100 100 97 78 26 16 11 11 9 9 11 12 14 13 11 10 11 14 12 11 13
59 85 80 75 70 71 75 80 76 76 77 77 75 70 67 68 75 87 99 99 100 100 99 100 93 59 21 16 14 13 12 11 11 13 15 16 14 12 14 15 14 13 13
64 85 86 81 78 75 76 78 77 77 74 72 72 71 71 75 78 81 89 100 100 100 100 97 82 39 17 17 17 16 15 14 13 13 14 16 16 16 19 19 16 14 14
84 83 93 85 85 83 80 80 82 83 84 87 86 86 88 90 89 91 91 99 99 100 100 97 69 32 21 21 18 18 17 16 14 12 12 14 15 18 20 20 18 16 15

GFSMW_850_rhum_069.txt.gz
RH
37 42 44 40 50 69 73 78 89 88 90 89 85 81 83 84 86 79 85 92 93 92 89 88 90 96 98 97 96 95 92 88 85 87 83 82 80 76 79 73 71 93 93
34 39 43 44 46 47 60 64 67 72 77 85 83 81 82 80 83 82 91 87 94 97 98 98 95 98 98 98 97 98 90 87 88 83 82 84 78 70 71 70 67 90 91
36 36 42 43 41 47 47 59 57 64 65 73 81 84 85 88 91 93 92 91 95 94 97 100 100 100 99 96 96 98 99 94 89 86 88 95 86 84 79 79 77 87 83
37 35 37 38 41 40 40 60 64 59 64 70 68 72 80 79 72 79 86 95 96 82 84 86 79 90 98 94 79 75 76 90 69 66 76 92 99 97 96 82 75 81 82
40 38 40 37 40 40 40 44 64 65 57 63 69 70 65 67 65 68 84 86 77 69 66 73 92 88 58 39 33 32 33 36 40 42 43 49 61 90 99 93 73 80 82
37 36 38 42 43 41 40 39 41 74 67 62 62 62 63 60 56 67 74 71 68 79 80 52 37 32 30 30 31 33 36 39 42 44 47 49 52 63 88 86 87 82 80
37 36 39 42 42 42 40 39 37 38 46 47 54 57 53 52 57 67 82 79 77 70 40 32 31 31 31 32 35 39 43 46 49 52 56 60 71 96 98 91 91 86 90
27 33 38 43 43 40 40 40 38 37 35 33 38 44 44 48 49 54 69 68 48 37 30 31 31 34 34 38 42 43 44 46 48 51 60 76 98 95 100 96 99 100 93
26 25 27 30 38 44 44 42 41 38 36 35 33 34 43 47 58 44 43 34 34 32 34 32 34 37 38 44 46 48 48 48 48 53 68 68 92 98 98 98 99 100 100
33 31 27 26 31 32 39 46 46 44 41 41 43 47 37 43 49 48 43 33 33 36 37 37 41 42 44 49 51 52 50 50 51 54 62 78 97 92 94 92 92 96 99
36 36 35 32 34 33 34 42 48 50 48 47 47 54 48 51 49 48 53 46 39 37 40 40 46 49 52 54 56 58 57 55 55 57 68 94 99 93 94 99 98 100 99
37 37 39 41 40 42 43 53 57 56 57 58 57 58 57 54 52 50 51 47 44 40 43 49 54 56 56 58 63 67 64 63 62 60 66 92 99 98 98 98 100 100 100
37 38 40 42 41 47 51 59 69 70 69 68 65 63 59 55 52 50 50 49 49 50 53 56 54 58 62 68 73 74 73 76 77 76 76 80 82 84 88 87 82 74 82
46 45 43 44 42 42 53 60 74 76 74 72 69 66 63 61 58 56 55 56 57 57 58 56 60 65 70 76 80 83 81 81 85 88 88 88 88 90 87 84 80 78 79
47 47 48 49 52 46 48 56 61 70 73 72 69 66 63 60 58 58 59 59 60 60 56 61 69 76 83 84 86 88 88 87 89 90 90 90 86 79 78 78 79 79 79
50 49 47 49 53 64 49 59 62 64 69 68 67 65 62 61 60 61 61 62 62 59 64 72 81 84 86 88 87 89 89 88 90 91 94 92 89 85 78 78 76 70 63
61 57 55 55 52 53 64 56 60 65 67 70 69 66 63 62 62 63 62 64 59 63 72 82 100 99 98 100 96 89 96 99 99 98 99 92 80 44 19 10 8 6 6
74 69 60 55 52 54 51 62 60 66 66 68 68 67 65 63 62 61 61 61 63 73 86 96 99 99 99 99 99 89 95 100 100 94 87 57 23 9 10 9 9 9 10
56 75 74 65 57 53 54 54 65 66 69 68 68 65 66 66 65 65 67 62 68 80 96 99 99 99 99 99 94 87 89 89 84 58 25 11 11 12 13 11 10 10 12
45 69 76 73 63 56 55 55 66 65 66 68 70 73 76 73 71 70 68 69 76 90 99 99 99 99 99 100 90 87 64 36 18 10 10 12 12 12 12 10 10 12 14
47 50 78 80 70 64 56 54 62 65 67 76 80 80 78 78 79 75 69 72 84 99 98 99 99 100 99 96 80 28 14 12 11 12 14 15 15 14 12 9 9 11 12
65 51 71 84 78 72 68 67 78 79 82 84 84 83 84 84 82 76 74 80 91 100 99 100 99 99 100 74 28 13 9 10 13 15 15 16 16 14 11 9 10 10 11
83 70 64 84 87 78 76 74 75 79 80 83 86 86 85 84 84 76 80 85 98 99 99 99 99 99 93 45 20 13 9 9 10 12 14 15 14 12 11 12 12 12 13
97 82 71 82 91 85 80 78 78 81 84 85 85 86 85 84 79 78 84 92 100 100 100 98 99 100 91 41 18 15 14 12 11 12 13 15 16 15 14 14 16 15 14
98 97 88 78 94 93 84 83 81 81 80 81 82 80 79 78 76 79 85 95 100 100 100 99 100 99 86 25 20 20 18 16 16 17 17 15 16 17 17 20 19 18 16
92 98 96 89 94 100 96 89 89 86 84 79 80 86 95 91 88 91 93 99 99 100 99 99 100 97 69 34 23 22 20 18 18 16 14 12 13 15 18 20 22 20 17

GFSMW_850_rhum_072.txt.gz
RH
42 46 44 48 54 71 77 77 77 81 81 78 80 86 84 80 80 82 84 85 88 88 91 83 81 82 90 94 92 95 92 89 89 84 82 81 79 79 73 72 72 69 76
39 39 44 44 51 49 60 74 71 77 77 80 83 83 85 87 81 78 84 85 84 89 95 92 89 90 92 96 95 96 95 95 86 84 82 83 82 75 67 72 74 68 79
35 36 36 45 44 53 47 52 54 59 74 79 80 85 86 84 88 87 86 84 84 90 93 94 96 98 99 98 98 99 96 92 92 92 94 93 86 88 84 82 82 80 81
43 38 37 39 44 45 52 51 55 61 63 65 70 79 77 76 80 76 76 84 88 88 92 95 99 98 100 100 99 99 98 87 82 74 93 78 95 98 86 83 84 90 86
41 39 36 36 36 42 46 52 55 57 62 68 67 70 77 72 73 69 67 74 79 69 78 74 82 80 74 83 85 71 47 42 37 38 38 40 46 67 99 94 97 82 75
41 40 37 39 42 43 44 45 54 53 55 64 71 68 70 68 76 74 70 63 64 61 59 60 55 61 62 48 33 30 31 33 34 38 42 44 52 54 60 85 97 89 80
41 39 38 36 44 44 41 40 41 41 43 53 68 68 72 75 68 76 60 58 58 57 53 58 61 49 32 30 30 32 31 36 39 41 44 48 51 58 62 90 97 97 86
38 39 40 40 40 43 43 43 42 40 39 41 50 63 64 65 61 56 56 56 52 46 50 59 43 32 35 33 31 33 36 41 43 44 47 49 55 58 76 93 92 99 85
29 29 34 43 44 44 44 44 43 42 40 38 37 38 52 54 57 59 63 64 63 71 65 39 43 34 34 35 35 39 44 46 48 48 50 51 60 74 74 98 96 96 99
32 32 32 30 28 28 29 35 46 45 44 43 40 39 37 45 53 46 45 44 51 49 48 47 42 36 36 39 45 47 48 50 52 51 54 63 76 82 89 96 93 98 99
36 35 36 35 31 31 33 30 38 50 48 47 46 43 42 47 56 60 56 54 57 51 44 55 55 50 46 48 50 51 53 56 58 58 59 65 75 93 99 92 96 100 89
38 38 38 40 38 36 37 36 35 44 53 56 55 53 54 57 61 62 62 59 53 52 51 55 55 51 50 53 55 59 61 61 65 67 69 71 83 100 99 97 97 99 100
43 44 44 47 49 45 42 42 42 48 56 59 60 64 64 65 64 60 56 53 51 50 53 57 58 56 55 54 56 60 65 70 73 73 77 79 87 96 100 100 99 100 100
48 47 46 49 50 48 53 50 47 47 60 72 72 71 69 67 65 61 57 55 54 55 57 58 58 56 57 59 60 65 74 76 80 86 88 90 89 92 98 99 100 93 82
49 50 50 49 49 51 51 59 57 56 61 73 74 73 71 70 66 61 58 57 58 59 60 61 58 57 59 64 71 78 81 83 87 89 93 96 97 92 90 89 87 86 86
68 64 57 53 54 53 54 58 65 68 64 65 73 76 73 69 65 62 60 61 63 63 63 61 59 63 70 71 76 84 89 91 95 96 98 97 96 92 90 86 83 84 82
54 62 69 66 66 60 56 55 52 65 70 65 68 71 73 71 68 66 64 64 64 65 63 60 65 73 83 98 99 98 96 99 100 99 100 100 98 88 66 38 26 21 20
48 45 48 65 68 68 60 55 54 50 69 70 67 68 68 70 70 67 67 67 66 67 63 67 74 85 97 98 98 99 100 100 99 99 100 99 86 52 16 11 8 10 10
45 43 40 46 65 72 64 56 55 53 62 71 70 69 67 70 72 71 72 72 72 70 69 75 83 97 98 98 95 99 96 100 100 100 96 78 28 11 12 12 12 13 11
52 46 37 34 57 73 69 63 58 56 58 64 71 71 73 72 73 76 77 78 76 72 76 83 97 99 99 99 99 98 92 96 92 83 44 13 11 14 14 12 11 12 13
55 54 53 41 59 81 79 68 63 57 57 72 76 78 78 79 80 81 82 81 79 77 83 99 99 99 99 99 99 91 77 54 30 14 12 14 14 14 13 11 10 13 13
70 70 65 52 50 83 84 75 70 70 71 77 85 85 84 86 86 86 85 83 80 80 94 99 100 99 99 99 99 84 26 16 13 13 15 17 16 15 13 10 10 10 11
97 92 89 76 52 80 90 80 78 79 85 89 90 90 90 92 92 91 89 88 83 84 98 99 99 99 99 99 92 40 15 10 12 14 18 18 18 16 12 11 12 13 14
94 98 98 94 69 79 93 88 84 81 84 86 88 91 95 95 94 94 90 86 83 88 96 99 99 99 100 99 80 29 18 11 12 12 14 15 16 18 18 16 16 16 17
99 96 97 98 93 89 96 97 89 85 85 90 90 89 89 88 87 85 81 80 81 89 100 99 100 100 100 99 87 32 19 17 16 18 18 18 18 18 20 20 22 21 19
99 97 99 90 90 89 87 98 99 94 94 90 91 88 86 84 91 96 95 93 90 99 100 100 99 100 100 100 83 30 24 24 24 23 19 19 19 16 18 20 23 23 21

GFSMW_850_rhum_075.txt.gz
RH
49 55 66 64 69 79 81 81 78 76 81 84 78 82 84 85 82 80 77 80 82 86 89 90 88 78 81 83 86 89 91 89 88 84 83 79 79 77 67 67 66 69 76
43 44 46 49 58 68 72 75 78 83 73 74 73 81 82 72 77 78 77 78 83 87 87 89 94 88 86 91 92 90 89 91 91 86 86 86 76 67 67 63 58 74 74
41 40 40 41 44 55 58 67 70 73 75 76 81 84 80 80 83 88 90 78 81 86 85 84 89 94 96 94 94 96 95 92 90 85 88 86 81 83 80 86 77 79 78
42 39 37 37 36 41 46 54 59 60 60 66 74 72 55 67 71 78 88 84 85 86 80 88 93 96 98 98 99 97 98 99 88 90 90 91 95 100 82 76 84 81 79
44 44 42 38 36 35 38 46 50 58 64 68 74 70 68 68 69 79 82 84 85 85 87 86 84 86 81 74 66 62 81 82 69 37 34 37 41 45 72 74 48 76 70
41 43 41 38 36 35 37 42 54 47 53 60 62 63 71 72 72 75 81 85 84 88 88 82 69 59 59 62 61 56 49 40 34 35 35 38 45 55 60 68 69 67 78
40 44 42 39 38 39 40 45 53 55 58 58 58 64 61 66 68 75 77 72 70 71 84 71 60 53 51 56 46 32 32 34 36 38 43 46 49 58 70 82 80 92 89
39 43 41 40 42 47 47 44 42 41 41 44 49 58 61 64 70 70 72 72 70 63 71 68 63 64 61 52 34 35 38 38 40 44 47 48 52 58 70 86 95 99 100
37 40 42 42 44 46 47 46 45 45 43 43 41 39 44 55 62 68 69 68 61 63 67 59 65 69 51 44 48 40 42 42 43 45 47 52 55 58 60 82 81 94 100
35 34 31 30 30 30 32 35 39 46 47 47 45 43 41 40 48 59 66 67 62 54 52 52 51 47 52 50 43 45 47 48 49 52 53 55 57 62 72 76 82 92 94
41 39 38 36 35 33 31 33 32 29 41 53 51 47 44 42 42 46 62 73 76 60 56 56 54 53 52 44 47 52 53 54 56 55 56 58 64 69 77 94 98 90 94
42 41 41 42 40 38 36 34 38 39 37 46 55 54 52 51 48 51 59 64 67 64 62 59 51 48 48 48 52 55 59 58 58 61 66 69 73 76 88 96 96 93 98
47 47 46 47 47 46 43 42 41 44 46 47 54 59 59 60 62 64 65 64 60 58 55 54 54 53 54 56 57 58 58 61 64 69 77 79 84 86 98 99 98 98 98
54 51 47 46 46 46 50 49 51 56 58 58 60 66 68 71 71 70 68 64 60 58 55 55 55 57 59 58 58 60 64 68 71 79 82 88 91 92 99 100 99 98 98
60 61 59 57 55 53 51 51 51 57 64 67 70 72 75 74 74 73 70 66 62 60 59 60 61 62 61 59 61 63 67 73 80 83 87 89 94 97 96 97 97 97 97
55 54 56 62 62 62 60 54 51 54 64 67 71 75 76 76 75 74 70 67 66 65 65 64 63 63 61 64 71 68 71 82 91 97 100 100 100 100 92 94 92 88 85
44 42 40 39 45 57 65 58 52 52 55 60 71 73 73 72 73 73 71 67 65 66 68 66 66 64 66 72 81 92 100 99 100 98 99 100 98 100 97 83 56 56 66
46 43 40 36 34 35 47 61 59 55 54 54 63 72 72 73 73 71 71 70 68 68 67 68 67 68 73 83 91 98 98 98 99 99 100 97 100 99 80 37 15 11 11
60 56 52 46 41 36 42 54 60 60 53 53 54 66 74 75 75 72 73 74 72 72 71 71 69 72 79 89 98 97 98 98 99 99 98 99 100 73 22 12 13 14 15
61 59 59 55 51 47 47 65 71 62 58 57 59 69 78 78 78 76 77 76 76 76 75 73 72 78 90 98 98 96 99 99 100 100 100 95 63 19 18 21 16 16 15
68 73 73 69 63 57 53 66 78 72 63 59 58 68 78 81 81 84 83 82 83 81 79 76 76 80 97 99 99 97 99 91 91 89 70 31 15 16 14 15 16 18 16
80 87 92 86 82 80 65 72 84 83 74 68 66 68 79 85 85 88 88 89 88 85 84 80 78 82 97 99 99 98 99 75 46 24 16 17 19 19 17 15 15 13 13
92 88 98 98 96 93 94 96 94 89 83 79 76 84 88 90 90 92 93 93 91 90 88 82 78 88 98 99 99 99 98 55 18 15 16 19 22 21 19 14 13 12 12
93 96 98 97 91 97 93 92 100 98 89 86 84 84 90 93 94 96 98 98 97 94 90 84 83 91 99 99 99 99 96 34 16 12 16 16 18 18 18 19 18 16 16
86 99 94 78 80 82 84 84 89 100 99 92 91 89 91 92 94 95 96 96 92 89 84 83 91 99 98 99 100 100 96 35 19 14 15 15 15 16 18 20 20 21 22
100 87 77 77 70 75 78 79 85 96 100 100 97 93 90 89 90 92 94 95 98 95 90 91 96 99 99 99 100 100 99 44 30 30 21 21 22 22 22 19 21 21 23

GFSMW_850_rhum_081.txt.gz
RH
84 77 97 76 76 70 61 68 63 67 75 78 82 86 77 57 56 64 64 70 72 81 90 88 86 90 91 84 82 86 91 91 84 88 80 82 81 65 64 52 48 54 50
69 85 82 98 83 80 81 72 67 77 84 78 82 90 81 70 65 65 64 69 78 79 82 87 82 84 92 95 89 90 91 84 87 84 82 85 75 59 61 70 67 45 58
59 59 69 83 85 81 90 86 77 69 81 75 66 82 78 69 82 68 68 76 86 88 81 86 84 83 81 82 90 89 86 89 83 88 85 80 83 84 81 71 57 51 69
60 55 52 52 70 71 73 62 74 75 83 85 62 70 81 85 80 86 88 92 82 84 93 85 81 85 89 95 86 89 87 84 84 81 84 77 86 92 91 46 42 50 50
62 53 51 48 46 45 45 55 67 72 77 80 81 85 89 84 81 90 79 80 87 87 82 80 76 86 87 98 100 94 87 78 70 80 72 63 59 42 47 51 40 50 57
61 53 49 49 44 41 40 39 45 53 66 70 74 75 75 74 81 86 77 83 68 87 92 78 73 70 82 87 96 82 75 70 77 68 68 58 40 40 48 56 47 50 53
65 54 50 48 44 42 40 38 39 45 49 65 66 60 66 66 73 73 73 76 75 69 75 75 74 77 74 72 74 68 74 67 65 55 54 46 40 42 47 55 75 89 61
69 62 54 48 46 45 44 44 45 47 50 52 61 59 57 65 65 64 65 69 72 68 72 78 82 70 84 82 75 73 75 76 71 48 42 42 42 46 49 54 67 99 97
70 54 49 46 46 46 47 48 48 47 46 45 44 44 43 43 43 48 61 68 67 69 72 78 80 76 81 74 74 79 74 63 56 47 45 42 44 47 50 56 69 87 99
56 49 44 41 39 37 35 34 35 37 40 42 44 44 45 44 43 42 41 44 57 63 68 73 70 75 80 78 78 72 67 61 54 51 46 47 48 50 53 57 68 77 99
53 50 45 42 40 38 35 34 32 30 29 28 26 28 38 48 48 46 45 43 44 58 69 74 73 75 78 81 77 75 63 58 53 48 49 50 52 52 56 62 68 78 95
52 47 45 42 37 36 35 34 36 37 36 36 36 34 34 46 53 52 49 47 46 52 74 84 85 84 89 86 76 63 58 52 50 51 53 54 55 56 61 67 75 81 100
54 52 47 45 44 43 40 38 36 35 40 44 45 47 47 49 53 56 56 54 54 62 81 90 88 79 70 65 63 58 55 54 54 55 54 54 54 59 66 79 88 98 97
57 55 53 53 53 52 52 50 47 44 41 43 49 53 57 62 64 66 68 69 70 72 73 73 72 70 65 62 60 58 57 56 56 54 51 52 58 65 75 96 99 98 99
52 49 47 44 42 40 40 42 46 53 51 47 45 52 61 62 68 74 76 77 75 74 72 70 68 65 63 60 58 57 58 56 53 50 49 51 61 84 99 100 99 99 99
55 53 51 48 46 44 41 38 36 34 36 47 52 51 55 65 67 73 77 78 78 77 76 72 69 64 61 60 60 59 57 54 53 52 49 56 86 97 99 99 99 100 99
65 61 56 52 50 47 44 40 37 35 32 31 44 54 54 58 71 75 78 76 77 78 77 73 69 67 67 65 61 57 54 54 56 56 54 76 95 98 98 98 99 100 92
64 57 51 51 53 56 56 53 52 48 43 38 39 54 58 56 67 81 81 82 82 81 79 75 72 71 68 63 60 57 55 54 57 64 86 99 99 99 99 99 98 67 40
62 62 64 64 65 70 72 69 66 63 56 51 54 64 69 62 62 77 79 81 83 82 78 76 75 74 71 67 63 60 61 61 69 81 96 99 99 99 98 100 88 42 18
63 61 61 66 70 73 76 75 73 74 72 68 70 78 78 73 69 71 83 86 86 84 84 82 80 80 77 74 70 65 63 60 71 87 100 100 99 99 100 92 31 17 17
59 56 59 60 68 69 66 69 70 77 81 82 87 89 85 79 81 78 88 91 90 89 88 86 85 83 82 80 77 71 68 70 83 86 91 100 100 100 91 27 18 20 18
45 43 41 40 48 49 46 47 59 70 74 78 83 95 92 85 87 91 92 96 97 95 93 91 90 88 87 86 82 78 77 87 94 92 86 88 95 76 28 16 17 16 15
31 28 24 20 22 30 36 32 38 49 66 71 77 86 98 95 91 98 100 100 100 99 95 94 92 91 91 92 88 86 87 98 98 99 83 62 41 20 18 18 19 17 14
36 32 30 29 24 27 32 37 40 46 51 63 72 80 88 99 99 98 100 100 100 100 98 97 97 96 99 95 93 90 96 99 98 98 87 36 21 19 21 22 21 18 15
34 39 39 37 32 35 34 37 45 51 49 51 58 72 82 96 100 100 100 100 100 100 100 99 100 100 100 96 99 92 94 100 98 100 98 34 21 20 21 22 24 22 22
31 36 40 44 39 38 32 35 49 60 59 56 56 60 72 83 99 100 99 100 100 100 100 100 100 100 96 90 92 93 98 100 100 100 100 68 24 18 18 20 21 21 23

GFSMW_850_rhum_084.txt.gz
RH
86 90 100 75 97 70 62 69 74 69 67 68 72 74 78 73 71 78 75 80 80 82 82 75 89 95 93 86 76 75 81 83 94 90 82 83 85 84 80 80 63 66 43
94 100 96 83 99 88 70 90 70 77 85 82 81 91 87 84 81 79 78 79 78 83 86 85 97 98 95 94 89 85 91 94 91 84 90 76 74 78 70 78 52 50 34
86 100 92 94 86 95 92 87 81 84 83 76 69 64 77 88 84 82 87 80 82 82 80 87 85 88 98 99 100 95 91 87 82 82 83 78 68 77 74 80 62 40 50
78 78 86 78 69 83 90 94 98 99 94 93 76 76 67 55 70 74 81 89 98 89 91 91 92 86 95 99 99 93 90 93 89 85 82 80 87 77 67 80 61 45 49
77 78 78 87 88 80 75 76 74 82 91 82 90 92 88 86 84 84 74 84 86 78 89 93 90 81 90 98 98 100 91 97 100 92 84 79 62 58 64 61 66 58 67
78 72 74 76 79 79 85 80 81 88 83 85 91 98 100 91 88 93 83 78 76 83 77 82 90 93 93 94 88 81 91 98 85 77 77 79 84 65 41 51 70 75 75
72 74 79 73 70 70 57 49 50 59 76 80 87 84 81 79 75 74 82 81 73 81 72 70 74 85 89 90 91 88 81 76 71 70 82 81 67 47 45 47 42 52 56
83 75 68 67 66 60 54 52 51 53 56 64 67 70 75 70 69 76 78 74 75 79 76 80 85 87 89 74 75 73 71 76 80 77 80 72 46 45 46 43 50 78 82
93 77 65 51 52 48 47 48 50 52 53 53 54 58 57 61 68 69 74 73 72 74 72 74 81 86 87 83 83 80 78 74 79 90 65 49 49 43 43 45 50 64 88
71 82 69 52 47 43 42 38 36 36 38 40 44 49 49 48 46 46 45 48 58 65 67 68 76 80 78 78 78 73 77 84 91 70 55 53 48 45 45 47 52 59 91
67 64 54 50 48 44 41 41 39 38 34 34 37 37 37 44 50 49 48 46 44 47 64 72 74 79 84 82 77 77 86 86 71 61 58 51 47 48 51 53 55 59 67
69 62 61 60 47 43 41 38 36 36 38 39 36 37 39 43 49 54 52 50 47 47 50 70 80 83 82 82 83 87 77 73 64 58 53 50 50 51 53 54 58 64 72
62 60 58 52 50 50 48 46 45 42 39 38 42 45 41 41 43 50 58 58 56 54 57 72 86 88 88 89 92 88 80 66 59 54 51 50 51 52 52 55 64 70 84
59 57 52 46 43 42 40 39 39 41 44 44 43 44 51 53 51 50 52 57 62 64 69 82 94 100 100 96 85 72 65 60 55 52 52 53 52 53 55 62 69 79 97
60 62 51 47 45 44 43 42 41 38 35 34 38 47 45 49 58 62 64 67 69 72 75 77 79 78 77 74 71 66 60 57 55 54 54 52 50 49 53 66 90 100 100
66 59 54 52 49 47 45 43 40 38 35 33 31 33 46 49 51 64 70 75 76 76 76 75 75 74 72 69 66 62 60 60 58 55 52 50 48 53 77 97 100 99 100
62 59 55 49 43 40 40 38 36 36 37 38 37 36 38 53 57 58 75 80 81 81 80 80 80 79 76 71 67 64 64 62 59 56 56 54 54 69 92 98 100 99 99
75 74 70 65 59 51 46 44 46 49 49 46 46 47 48 53 64 65 65 81 85 85 85 86 85 81 77 73 71 68 65 63 60 58 53 58 57 81 96 99 99 100 91
70 63 62 62 65 67 64 60 58 56 55 59 61 61 61 65 71 72 72 80 88 89 87 86 85 82 80 78 75 69 66 63 62 57 61 70 80 92 99 99 98 97 66
64 60 56 59 62 62 53 52 58 62 63 63 61 61 70 79 79 80 78 80 89 90 92 90 87 84 83 81 76 70 68 66 64 63 65 75 86 99 99 99 100 92 44
49 46 45 43 39 36 33 33 32 42 46 60 66 70 73 85 89 83 82 83 88 94 92 91 89 88 85 83 80 75 72 70 68 65 70 78 90 98 100 100 97 37 20
32 29 25 25 26 23 24 25 26 29 30 33 47 64 74 82 94 94 88 91 93 97 99 94 92 90 89 86 84 81 77 77 75 76 83 86 97 100 100 96 42 20 20
28 26 23 23 29 26 26 25 26 27 27 32 27 31 59 77 85 98 100 99 99 100 99 96 93 91 90 89 89 88 86 83 84 89 94 94 90 100 99 65 22 19 18
25 23 28 38 35 34 32 31 32 35 34 32 31 29 30 46 76 93 99 100 100 99 100 100 100 97 96 96 95 94 94 98 96 100 96 98 77 73 68 33 25 25 22
34 35 36 33 27 32 29 31 34 37 36 36 35 35 38 36 43 72 94 99 99 100 100 100 100 100 99 94 96 100 99 96 98 100 99 98 75 38 29 32 56 41 29
30 26 25 26 26 31 33 35 38 42 46 47 48 53 52 59 51 51 67 91 99 99 100 100 100 100 100 100 100 100 100 100 100 100 100 99 98 54 27 23 25 30 31

GFSMW_850_rhum_090.txt.gz
RH
48 57 60 70 71 75 68 70 67 94 93 86 85 61 70 87 86 77 82 89 93 90 92 91 81 78 92 90 82 79 75 80 79 80 77 78 81 81 80 77 77 76 73
58 60 60 71 86 75 72 90 72 78 89 84 79 70 64 79 76 71 75 75 75 87 92 97 88 74 80 90 90 95 91 84 82 77 80 83 81 75 78 76 76 71 72
69 74 97 80 85 76 70 82 98 96 93 87 89 80 70 87 85 71 70 73 79 86 85 86 85 87 83 92 95 97 98 93 88 81 84 88 82 77 77 75 74 74 52
77 85 97 84 93 85 74 72 99 100 94 92 93 92 87 87 92 92 81 90 82 81 76 78 78 84 87 89 94 82 85 94 92 94 91 83 79 72 75 75 76 69 56
85 94 99 99 95 83 74 64 74 100 100 97 97 99 100 96 99 97 96 95 91 85 70 60 61 65 77 77 81 81 74 78 86 83 86 94 92 86 78 79 73 67 63
89 90 100 100 100 91 79 80 84 99 100 95 100 98 100 97 98 96 98 98 83 79 72 66 63 58 52 66 79 80 77 80 85 93 82 100 92 96 88 76 69 72 71
87 92 96 100 100 99 89 81 87 100 100 82 84 96 96 92 94 98 84 79 84 83 72 74 62 56 83 92 85 79 90 71 67 87 88 94 100 91 86 82 76 84 65
99 91 89 95 96 88 91 94 96 88 93 99 91 95 98 88 89 80 76 66 88 84 68 71 75 77 68 67 98 84 86 85 64 90 95 98 84 78 83 78 84 74 55
100 100 95 94 99 97 96 82 81 85 88 86 87 85 83 86 83 77 85 92 90 91 79 74 70 63 66 73 88 86 90 87 76 88 93 96 90 86 85 82 63 52 56
97 98 99 87 91 86 80 75 74 74 75 71 70 80 87 90 80 86 84 80 82 78 77 76 83 83 83 88 93 85 81 83 84 92 97 90 90 86 87 70 52 52 53
100 99 90 74 71 74 62 58 54 55 53 51 52 55 60 62 64 67 74 83 87 76 80 76 81 82 83 84 85 97 83 78 83 93 99 98 94 84 85 55 54 51 51
91 85 82 80 71 60 55 52 48 44 41 41 42 42 40 40 44 49 55 56 55 58 65 68 65 73 79 85 95 86 91 99 100 100 100 100 90 89 68 58 56 52 54
68 56 54 52 48 46 45 46 41 38 36 36 38 38 38 38 41 41 44 47 54 58 57 57 62 70 94 100 99 98 99 100 100 100 88 90 90 79 64 59 54 55 56
57 58 58 58 57 54 52 48 45 43 42 40 38 35 32 34 38 39 42 48 50 51 58 65 67 74 85 100 100 99 100 100 100 98 97 97 81 69 63 58 58 62 65
60 61 61 62 60 53 46 43 40 38 36 36 35 34 33 31 29 33 41 44 53 58 59 63 68 71 79 99 100 100 100 100 100 100 97 84 75 68 61 58 60 62 63
63 64 65 64 61 54 48 42 40 38 36 36 35 35 34 34 34 33 31 38 48 60 71 71 74 74 76 92 97 100 100 100 100 96 88 82 72 64 60 57 57 55 59
65 66 65 59 54 51 48 44 39 38 38 43 45 43 42 42 43 44 43 42 48 62 67 80 83 79 79 81 90 99 100 100 98 89 78 70 64 61 59 56 54 55 60
66 66 61 60 57 54 48 35 30 30 28 26 26 34 41 48 49 49 52 54 58 64 73 78 89 91 87 83 84 87 89 87 82 76 70 66 64 62 58 55 52 56 70
62 55 49 43 34 32 29 24 25 32 32 29 30 24 24 25 32 44 52 57 67 73 83 92 90 97 93 90 88 90 88 84 80 75 72 70 67 63 58 54 60 74 82
60 48 32 26 22 19 18 17 17 20 20 23 23 24 26 28 26 30 39 56 69 85 90 98 100 100 100 98 94 94 91 85 80 76 74 71 66 63 60 57 66 79 88
48 41 39 42 48 46 31 27 21 17 16 17 16 15 16 20 22 26 31 34 75 91 99 99 99 100 100 100 100 97 92 87 83 80 76 70 67 63 65 68 79 87 95
40 41 38 40 50 57 60 50 38 35 29 19 15 14 19 27 31 33 32 39 65 85 85 90 95 98 98 100 100 100 96 90 86 83 79 74 73 72 71 80 92 99 99
37 40 46 42 34 40 49 49 44 54 53 39 26 23 22 23 28 35 36 40 49 83 97 97 98 99 98 100 100 100 100 99 92 88 86 85 80 77 78 86 100 99 98
40 44 38 33 29 30 31 33 40 47 51 50 39 32 33 36 44 41 47 60 56 56 74 100 100 94 99 100 100 100 100 100 100 98 96 93 87 85 84 96 99 99 100
43 41 36 32 33 30 27 29 32 38 56 64 54 46 46 47 49 46 50 61 91 92 88 98 99 99 98 98 100 100 100 100 100 100 100 100 100 96 91 99 100 100 100
39 35 26 29 29 28 28 29 31 38 48 62 65 66 70 70 60 52 41 48 68 76 100 100 100 99 99 100 100 99 99 99 100 100 100 100 100 99 97 94 99 99 100

GFSMW_850_rhum_093.txt.gz
RH
20 24 48 47 54 66 66 64 63 57 59 69 75 85 91 91 81 73 84 87 85 88 82 75 71 70 73 74 73 70 62 60 71 80 77 72 75 84 80 83 79 71 74
28 42 59 47 60 66 69 68 72 82 72 75 74 87 90 84 88 84 80 78 89 88 90 84 87 89 92 93 88 81 77 78 80 82 82 79 77 76 74 79 78 74 77
53 58 55 53 56 64 68 64 69 72 71 64 70 88 90 85 85 88 85 78 68 84 83 82 88 90 83 87 91 89 89 87 86 84 80 86 84 79 79 79 81 75 76
57 56 55 60 80 72 71 80 76 72 68 61 85 82 90 87 81 81 97 79 76 89 87 84 84 90 82 76 79 89 89 86 77 91 88 84 84 83 82 81 80 78 72
72 81 92 95 99 98 95 85 79 88 93 78 84 89 87 98 93 94 99 80 82 74 70 69 87 78 79 79 76 67 75 73 78 87 84 83 78 78 99 88 81 79 70
82 84 99 95 98 99 98 97 100 100 100 100 92 100 99 98 96 97 94 100 93 99 92 91 79 71 74 68 72 74 75 57 64 74 73 78 72 82 80 88 86 81 80
93 99 99 100 100 100 100 94 98 100 100 100 98 92 96 99 99 98 94 98 99 95 83 81 79 72 71 81 77 60 69 81 81 77 72 72 80 83 98 93 91 89 83
100 100 100 100 100 100 98 92 89 88 91 98 94 91 84 98 99 95 95 97 91 87 74 87 88 73 68 76 80 83 80 89 94 88 91 85 80 79 100 100 84 88 91
100 100 99 100 100 94 94 91 88 84 88 94 95 82 73 85 81 85 80 96 84 78 93 92 89 72 74 82 84 79 81 86 95 97 98 95 74 79 86 81 86 81 92
100 100 99 97 92 95 89 84 79 84 86 86 88 88 96 89 76 81 86 91 90 92 93 82 84 77 82 88 87 84 83 81 76 98 93 93 80 82 89 79 80 88 84
100 99 96 87 84 80 71 60 62 64 66 68 69 73 74 78 83 86 89 92 98 100 92 91 88 87 86 82 79 79 89 84 78 86 81 86 77 88 91 90 91 91 70
97 97 92 84 67 62 54 55 47 52 54 56 56 53 53 50 51 55 58 60 62 64 64 67 71 80 84 87 82 86 83 92 96 87 88 90 93 97 100 96 92 75 59
68 66 64 57 55 55 54 48 45 42 40 38 36 36 37 40 41 42 43 44 44 46 51 57 60 61 57 62 92 99 100 100 99 100 99 99 99 100 100 94 91 64 62
59 59 58 57 54 49 45 42 40 38 37 36 36 36 36 34 32 30 32 36 40 45 50 50 53 61 70 72 74 98 98 100 100 100 100 100 100 100 100 93 82 66 62
61 60 59 57 54 50 46 42 40 38 37 36 35 35 34 34 34 33 31 30 32 40 50 56 61 62 63 73 84 98 98 100 100 100 100 99 100 100 100 89 73 67 63
64 62 61 59 52 46 42 40 36 34 33 33 32 31 31 33 33 33 35 35 34 34 37 49 63 68 74 77 80 98 100 98 99 98 99 100 100 100 92 79 73 73 66
64 63 62 54 48 43 39 36 29 26 25 24 22 21 23 25 28 32 35 40 40 39 42 48 55 70 80 81 85 91 100 100 100 100 100 100 99 94 87 80 72 66 63
64 61 55 51 45 39 33 31 26 21 21 20 20 19 17 16 18 22 26 32 42 46 46 48 60 66 71 88 91 92 93 98 100 100 100 100 96 88 79 71 68 66 67
61 58 55 45 35 33 34 34 28 23 23 21 20 20 17 15 14 15 15 18 25 38 53 65 72 82 96 94 96 97 96 95 94 94 91 86 83 79 75 70 66 64 60
54 47 38 32 29 28 30 34 38 32 25 20 19 19 18 17 16 16 14 12 14 18 26 78 96 99 99 100 100 100 100 96 94 91 89 87 82 80 77 71 68 63 58
46 40 36 31 27 24 22 20 21 23 26 25 24 23 23 22 24 27 26 24 22 23 26 26 76 89 97 98 99 100 100 100 99 96 92 88 83 80 79 71 70 63 66
46 43 41 41 42 48 51 41 31 31 25 21 20 22 25 29 34 41 36 37 41 41 36 28 36 85 96 93 100 100 100 100 100 99 94 90 88 83 79 76 73 78 84
44 44 44 43 40 39 39 47 43 46 50 57 45 28 24 28 36 46 56 59 54 50 48 51 48 44 98 100 100 100 100 100 100 100 100 100 99 92 84 78 76 92 92
38 38 40 41 33 27 29 30 30 32 37 39 42 42 41 37 41 52 60 64 61 63 79 74 53 49 50 75 96 99 100 100 99 100 100 100 100 100 94 91 89 96 95
38 42 42 36 27 33 32 29 33 36 39 45 49 51 58 64 62 59 64 66 61 75 94 100 100 100 98 79 95 99 99 99 99 100 100 100 100 100 99 100 100 99 100
36 34 30 30 35 42 40 39 43 48 51 52 55 58 68 72 71 67 56 54 53 58 70 100 100 100 100 100 99 91 99 99 99 99 100 100 99 100 99 100 100 99 99

GFSMW_850_rhum_099.txt.gz
RH
33 32 31 25 25 23 51 54 47 58 63 69 69 65 58 58 60 71 76 73 76 68 85 70 72 77 68 51 67 58 66 71 71 74 68 63 63 65 69 75 77 81 84
32 30 29 27 28 22 46 54 41 53 67 67 60 59 63 66 70 77 81 78 79 80 80 72 80 69 74 78 67 49 66 69 77 74 69 70 64 59 66 76 76 80 80
36 30 33 36 33 38 57 56 64 72 75 70 71 71 74 76 83 83 80 87 82 83 89 87 83 78 77 77 76 71 70 70 75 70 73 78 75 63 63 70 78 82 79
41 44 65 54 63 56 52 68 72 71 74 75 73 80 78 79 73 78 78 79 77 88 90 93 95 84 72 86 83 72 78 82 73 72 78 74 73 72 72 68 70 80 82
66 59 80 94 81 77 77 75 83 79 75 78 83 92 89 85 80 92 88 86 81 78 80 97 93 100 86 90 92 89 91 82 78 80 76 83 83 80 73 74 68 70 73
95 63 72 98 99 97 91 88 91 88 82 82 84 90 97 99 97 93 92 94 96 87 86 82 100 100 92 91 95 91 83 88 79 72 76 76 74 82 81 82 79 74 68
75 98 98 97 95 99 100 94 84 92 94 96 94 96 98 98 100 95 100 98 86 85 95 89 97 99 88 92 86 91 84 80 81 76 77 77 81 82 77 77 80 87 76
100 100 100 99 99 99 99 100 99 99 98 99 99 99 99 100 98 99 98 87 100 100 100 89 86 96 93 99 93 92 89 85 95 86 97 88 87 84 81 76 87 96 93
100 100 100 99 100 100 100 100 100 99 97 100 99 96 100 100 100 99 100 100 100 99 100 100 100 100 100 99 100 91 86 79 76 84 92 87 84 77 77 82 90 100 98
99 100 98 98 100 99 100 100 100 99 100 97 91 97 96 97 100 100 92 97 100 98 97 100 100 98 100 98 99 100 98 93 99 93 83 89 86 81 82 98 100 100 100
100 100 97 98 91 88 88 85 82 75 78 73 75 68 73 82 87 85 93 92 95 96 100 97 92 96 93 98 95 99 93 99 96 97 100 96 95 95 100 96 99 100 100
100 99 96 96 99 97 87 83 72 59 50 50 45 41 43 49 58 46 52 57 58 64 66 72 76 82 89 100 100 95 93 96 96 99 100 99 96 92 91 100 92 88 96
99 96 94 91 91 86 86 77 75 66 48 45 43 42 41 39 38 38 37 37 37 37 45 49 54 56 64 72 84 99 100 100 98 91 91 86 93 91 95 91 96 91 95
69 70 71 69 64 60 54 47 43 41 40 38 36 33 32 30 31 32 33 34 34 35 36 36 39 45 54 60 63 72 79 88 95 100 100 99 99 100 99 99 90 94 98
66 66 64 61 56 52 49 42 35 31 30 28 27 26 24 22 20 19 18 18 18 22 28 34 37 40 44 54 60 66 71 84 93 100 97 99 99 100 100 100 100 100 100
66 66 64 58 52 45 41 39 36 32 29 26 24 22 22 20 18 17 16 16 15 14 14 14 15 29 41 49 62 74 73 74 86 99 99 97 97 99 100 100 99 100 97
66 66 63 58 51 42 38 36 35 32 30 28 25 23 22 20 18 17 16 16 17 17 16 15 14 14 14 30 45 52 64 85 87 89 98 98 97 99 100 100 100 100 100
65 66 60 54 44 37 36 35 33 30 27 26 25 24 22 21 20 20 20 19 18 18 18 18 19 18 15 14 13 28 58 75 97 99 100 99 96 95 100 100 100 100 100
66 61 55 46 41 38 35 33 33 33 35 33 32 29 27 27 27 27 27 24 23 22 21 20 19 19 18 18 16 32 35 57 90 100 100 99 98 100 100 100 100 100 100
63 55 49 46 41 37 34 33 33 32 31 30 28 26 22 21 20 22 23 25 32 32 25 22 26 31 29 24 21 23 96 96 84 90 95 100 100 99 100 100 100 100 100
58 51 48 40 37 36 34 30 30 28 25 19 16 14 14 16 18 21 24 26 29 34 40 50 44 37 38 35 37 40 82 98 99 97 93 89 98 98 99 100 100 100 100
56 52 41 30 27 29 32 33 27 26 27 26 24 22 22 22 23 26 30 36 45 58 55 50 43 41 41 44 45 42 48 82 100 100 99 95 86 99 99 99 99 100 100
52 36 29 31 35 34 28 22 20 25 27 30 36 41 43 43 41 40 37 38 42 64 78 75 66 58 50 45 52 54 58 70 88 100 100 99 99 99 100 98 97 100 100
30 30 33 31 20 19 22 32 42 48 49 51 52 54 57 57 53 51 50 53 59 75 79 78 82 74 87 69 72 83 100 100 95 94 100 100 99 100 100 100 100 99 100
33 34 25 23 27 34 39 44 48 52 54 55 58 59 60 64 69 66 65 67 69 85 86 80 85 93 96 88 100 100 98 98 98 100 98 99 99 99 100 100 100 99 99
31 25 27 32 35 42 47 53 54 56 57 57 61 66 72 73 79 81 74 64 84 93 87 82 93 80 85 98 100 100 99 99 99 100 100 99 100 99 99 100 100 100 100

GFSMW_850_rhum_102.txt.gz
RH
50 40 32 32 32 28 22 17 53 61 68 68 70 67 62 55 58 63 70 66 62 65 76 85 86 83 88 73 77 74 73 72 60 74 66 68 68 64 58 60 66 73 73
56 47 32 32 31 28 23 18 52 55 66 71 68 70 68 69 69 71 72 71 70 70 74 78 83 78 83 77 60 56 60 64 62 73 78 87 70 64 55 57 62 68 73
56 45 34 33 36 28 25 29 51 51 58 75 77 75 73 66 66 71 71 70 72 75 80 82 81 88 86 85 84 70 65 65 57 54 70 80 75 58 49 49 54 60 69
57 48 41 43 44 33 25 41 52 53 59 71 84 78 72 66 67 72 72 73 79 83 82 84 84 80 89 85 86 80 72 76 65 62 78 76 69 70 60 58 50 56 67
61 71 83 96 77 49 56 59 59 64 65 75 82 79 77 75 74 76 81 78 77 76 84 88 97 98 94 92 87 85 82 80 73 60 74 82 83 76 79 69 62 60 60
95 100 98 95 100 83 63 59 60 68 72 89 90 90 90 89 84 82 88 86 82 81 80 83 92 99 97 98 90 90 89 78 77 80 67 82 81 81 84 82 72 64 68
99 98 96 96 94 99 95 79 83 85 89 91 87 91 95 92 91 91 93 99 94 96 83 86 91 99 99 91 100 100 95 82 82 82 94 90 87 89 77 73 77 77 78
100 100 100 99 98 99 99 100 99 99 98 98 99 97 90 92 91 100 100 100 98 98 97 96 97 99 100 100 97 99 89 88 98 99 88 86 83 84 84 86 87 93 91
100 100 100 100 100 100 100 100 100 100 100 100 96 99 100 100 100 99 100 100 100 99 98 100 100 98 100 99 99 100 95 88 90 95 93 90 98 95 98 90 98 97 100
100 100 100 100 100 100 100 100 100 98 96 90 86 91 97 98 97 97 97 99 100 100 100 100 100 93 100 100 97 100 100 100 92 75 89 93 95 91 91 85 92 94 98
100 100 100 100 95 95 88 81 76 82 76 74 67 57 58 63 85 76 60 54 56 59 62 78 95 99 100 97 97 94 90 100 100 100 96 86 70 78 96 99 99 100 100
98 100 99 100 100 100 99 96 88 73 70 64 62 61 54 46 44 63 66 45 40 41 41 47 59 59 72 82 94 98 98 99 94 100 100 98 91 87 100 99 96 100 97
90 92 94 90 88 87 85 86 86 80 75 68 56 47 35 30 29 29 29 31 32 34 38 40 38 40 52 60 68 78 81 92 100 100 99 91 95 96 97 100 100 96 96
76 75 79 75 72 70 59 50 54 50 41 34 28 26 25 23 21 20 19 18 18 17 17 17 21 30 38 40 42 53 63 70 78 87 91 98 100 100 97 97 99 94 100
69 70 68 63 58 56 52 46 40 35 31 28 27 26 24 22 21 20 19 18 17 17 16 16 16 15 15 20 31 40 44 52 61 68 77 86 98 100 100 100 99 100 100
68 69 67 61 57 49 44 41 37 35 33 31 29 27 25 24 23 22 21 20 20 19 19 18 18 17 16 15 14 14 19 38 50 52 64 81 87 96 100 100 100 99 100
67 67 65 60 52 42 40 39 37 34 30 28 26 25 24 23 22 23 22 22 22 22 21 21 20 19 18 18 17 16 15 13 14 31 49 64 85 94 95 91 100 100 100
66 68 64 56 46 42 40 37 33 30 27 25 25 25 25 24 21 18 16 14 14 16 17 18 20 21 19 18 17 17 16 15 16 22 32 61 67 98 99 98 89 93 100
66 66 59 50 46 44 39 33 30 30 31 30 27 23 20 18 18 19 20 22 22 20 20 21 23 24 22 21 22 22 19 20 20 28 27 47 72 84 96 94 96 97 94
66 61 54 50 46 38 36 36 37 35 29 24 23 25 25 24 23 24 23 25 26 28 27 27 31 36 37 32 28 27 30 33 30 28 80 99 96 94 94 98 98 97 98
63 57 52 46 39 38 40 39 32 26 27 27 25 24 25 26 26 29 29 32 33 33 32 33 37 47 53 56 50 42 41 41 44 56 76 94 100 100 98 99 100 98 99
60 55 47 38 38 41 37 27 21 22 26 26 25 24 26 29 36 43 43 43 44 46 47 53 58 59 59 56 53 59 89 88 100 99 99 92 93 98 98 99 100 100 100
57 48 34 32 35 28 20 20 22 25 28 34 38 41 41 40 38 39 44 51 52 55 59 67 83 75 69 60 51 67 98 100 100 100 100 100 76 86 96 96 100 100 100
48 33 33 33 19 18 20 24 31 37 40 39 36 37 40 45 51 54 60 69 69 68 81 89 94 85 78 75 72 74 98 98 100 100 100 100 100 89 96 100 98 100 100
32 34 30 15 13 19 26 30 32 33 34 36 42 46 48 51 55 56 64 69 66 85 99 100 100 100 100 88 97 96 96 98 99 98 99 99 100 100 91 99 100 99 100
35 27 16 17 26 25 25 28 32 37 43 46 49 51 54 58 63 70 64 60 67 70 80 83 95 100 99 98 100 100 92 92 100 96 94 96 95 96 95 96 99 99 99

GFSMW_850_rhum_105.txt.gz
RH
52 52 52 47 33 35 34 30 21 22 50 66 67 75 72 69 67 68 73 72 65 68 72 71 76 80 88 91 89 83 82 85 83 78 70 68 63 52 52 60 54 54 57
54 56 59 49 33 31 32 31 28 28 47 66 60 62 66 65 66 66 67 65 67 66 73 76 84 87 87 91 92 86 80 96 86 84 71 86 57 49 55 60 56 55 57
97 63 43 45 36 31 29 29 28 48 56 73 64 71 75 73 64 64 68 72 74 78 84 84 86 84 80 85 81 83 79 78 77 76 86 74 74 71 58 46 47 46 50
99 79 63 66 48 33 34 29 27 28 54 69 58 61 78 78 71 68 66 69 70 74 80 88 94 94 89 93 92 88 85 89 88 73 73 75 79 70 62 54 44 39 39
98 67 74 98 99 70 58 50 55 39 57 56 57 74 88 83 76 74 77 79 76 77 82 84 79 86 91 89 89 94 94 90 95 96 90 69 72 78 78 70 60 55 49
92 91 97 95 98 80 69 96 94 58 64 72 79 97 99 98 91 86 84 81 84 87 85 82 84 86 80 87 88 87 96 97 99 95 96 97 90 77 86 84 72 72 66
100 100 100 100 99 69 70 69 64 61 70 75 89 99 98 97 96 93 95 99 95 94 94 95 92 89 85 94 91 96 100 100 100 93 89 92 94 89 75 79 82 81 75
99 100 100 100 100 100 98 99 99 98 99 98 98 99 95 95 95 100 99 100 100 98 100 99 100 100 100 99 98 100 99 100 99 100 100 93 84 83 89 88 82 84 88
99 100 100 100 100 100 100 100 100 100 100 100 100 100 100 100 100 99 100 100 99 99 100 100 99 100 97 99 100 100 97 94 98 100 99 87 84 90 89 84 87 80 92
98 100 100 100 100 99 100 96 91 87 76 68 66 62 59 70 83 84 74 71 73 68 74 64 76 99 99 100 100 100 100 100 100 95 98 97 92 90 92 91 89 92 99
99 100 100 100 100 97 87 84 83 79 76 79 76 61 58 52 49 71 78 73 55 58 47 50 48 58 61 70 95 100 100 94 98 97 100 100 96 99 97 95 95 93 93
100 100 100 100 99 100 97 92 86 77 80 78 72 72 56 45 38 39 46 47 54 31 29 36 39 39 40 49 54 58 71 92 99 100 100 98 99 100 95 94 98 95 87
87 86 85 84 84 81 84 84 80 71 65 58 52 54 47 35 32 27 26 28 26 21 20 19 18 18 23 31 38 43 55 64 73 84 88 99 99 100 100 99 100 100 89
74 69 68 63 65 55 44 40 41 42 35 38 37 29 28 26 26 23 22 22 21 20 20 19 18 18 17 16 15 16 22 33 42 55 71 80 91 97 99 100 99 92 99
68 68 68 63 56 52 50 44 39 37 36 34 31 29 28 26 26 25 24 23 23 22 22 21 21 20 20 20 19 18 17 16 14 15 26 42 63 82 98 98 99 100 100
65 69 68 63 58 49 45 43 40 37 34 31 28 26 25 25 24 24 22 19 16 14 13 13 13 14 16 19 19 19 19 19 19 18 16 14 16 35 58 85 99 100 100
66 67 66 62 55 44 42 41 39 35 32 29 29 28 27 22 15 12 10 10 9 9 9 10 10 9 8 9 10 13 16 17 18 18 18 19 19 16 22 42 78 91 95
64 68 68 63 52 45 44 41 37 32 29 28 27 21 13 12 14 15 17 20 22 24 25 24 24 24 20 20 19 17 16 14 14 15 16 17 17 20 28 36 44 61 86
64 67 67 58 50 48 44 38 34 31 31 25 17 17 20 22 24 26 29 30 30 30 30 30 30 34 33 34 35 36 37 30 23 16 14 21 28 30 33 78 94 79 87
67 68 62 54 51 48 41 33 31 31 20 18 23 27 29 30 32 33 34 33 35 33 32 32 35 37 41 43 47 49 54 49 47 38 28 21 30 88 100 100 100 98 90
68 64 58 54 51 42 33 35 31 24 27 33 38 40 41 40 38 34 36 34 34 33 33 34 32 35 40 40 43 46 52 68 84 92 92 78 31 49 100 96 97 98 99
66 62 57 52 41 36 37 26 24 28 33 36 36 32 30 32 34 34 35 38 44 46 47 48 48 51 64 69 72 70 96 97 100 100 100 100 98 94 82 93 82 95 97
65 60 54 40 35 33 23 24 27 32 31 29 28 29 31 34 38 39 39 37 42 47 54 65 68 74 79 69 61 68 76 88 98 96 100 100 100 100 100 93 98 75 98
61 55 40 37 31 21 23 31 33 31 30 30 31 31 33 34 37 41 47 50 53 58 63 87 99 93 94 95 75 73 88 87 87 91 88 91 97 100 100 100 98 98 99
56 40 37 29 19 27 31 28 28 30 31 31 32 35 37 42 43 45 51 52 54 90 100 99 99 99 96 93 89 100 97 95 98 99 92 87 87 84 91 93 93 94 96
39 37 29 17 27 24 25 28 31 32 31 32 35 41 45 47 53 56 48 51 90 100 100 100 100 99 99 99 97 98 100 98 97 97 98 88 82 85 85 86 89 88 98

GFSMW_850_rhum_108.txt.gz
RH
66 75 40 36 45 47 42 36 34 27 26 29 31 61 73 72 73 75 83 80 75 75 72 85 77 67 75 90 88 96 100 94 91 100 98 90 69 65 85 67 56 55 62
80 80 88 62 41 43 38 35 34 32 27 35 30 68 66 64 69 73 76 79 76 78 72 73 71 73 81 99 94 97 98 98 96 95 98 94 84 71 59 63 56 46 41
90 90 86 91 92 61 34 32 31 31 28 39 54 94 95 72 71 74 74 73 75 76 76 73 79 75 88 82 93 94 97 100 98 94 98 98 89 72 64 54 49 45 40
88 90 93 96 97 73 43 34 31 32 31 67 65 95 96 82 76 77 83 79 81 83 85 86 87 84 92 93 90 90 89 90 92 97 87 92 78 73 69 62 67 45 50
98 99 100 100 100 87 88 97 80 70 72 50 77 91 95 84 79 74 74 84 91 87 83 82 85 93 92 86 91 91 89 93 90 95 90 74 76 74 80 86 77 61 55
99 94 100 100 99 99 89 99 93 99 96 63 89 83 89 75 70 90 100 98 96 97 98 96 90 94 95 93 95 92 97 96 92 99 100 100 96 78 80 84 78 85 80
99 94 99 99 100 99 98 99 99 87 71 85 99 99 100 98 94 99 98 96 99 100 100 96 99 99 100 99 97 99 99 99 100 100 96 98 99 100 98 93 86 82 75
99 99 100 100 100 100 99 100 98 71 80 89 100 99 98 91 92 96 99 98 99 100 100 100 99 99 100 99 99 99 98 98 98 98 90 98 99 100 100 99 93 97 90
98 98 98 100 100 100 99 94 98 98 89 93 99 99 98 98 97 97 97 98 95 90 89 92 98 100 100 100 100 100 99 100 100 99 93 100 95 100 100 100 100 100 98
98 99 99 99 96 99 91 88 84 80 79 75 64 56 58 73 84 85 77 71 64 63 63 54 56 56 61 60 83 99 100 100 96 98 100 100 98 100 100 100 97 92 96
99 99 99 100 100 93 89 92 86 82 81 79 69 54 50 40 36 45 59 78 79 57 43 46 48 39 45 49 55 62 72 90 98 100 96 98 90 100 100 99 95 96 100
100 99 99 100 99 97 95 95 90 84 85 84 69 78 78 41 29 27 26 26 27 46 31 26 22 21 27 24 29 39 40 51 64 67 79 92 100 94 98 100 100 100 100
92 88 80 83 79 75 75 69 58 49 54 43 40 45 50 57 52 39 30 27 26 29 28 25 22 20 20 19 18 17 17 20 28 36 45 59 74 86 99 99 98 100 99
81 75 70 65 57 51 44 40 38 36 35 36 38 35 36 35 30 32 26 25 24 22 21 21 19 18 18 19 20 20 20 20 19 18 16 20 32 50 67 80 91 97 100
70 67 69 67 54 48 46 42 40 39 36 33 30 28 27 28 26 23 19 14 10 8 8 7 7 7 7 7 8 10 13 15 17 18 19 20 19 18 22 42 59 78 86
63 66 68 63 59 50 45 44 42 39 34 31 29 29 28 24 16 12 10 10 11 12 13 14 13 12 13 12 11 12 10 8 8 9 10 12 16 18 19 20 22 49 87
61 67 68 68 63 53 45 45 43 38 33 32 31 28 19 14 14 15 18 19 19 20 20 20 21 20 19 18 17 17 16 17 13 12 10 9 10 11 17 18 21 24 35
60 61 65 66 63 53 46 46 42 36 33 32 28 17 14 15 17 20 23 24 25 26 26 26 29 32 33 34 34 34 33 31 24 23 20 18 16 20 69 88 63 60 52
59 64 65 67 63 51 49 45 39 33 32 26 15 15 19 23 27 29 30 30 29 29 29 29 30 36 36 42 54 60 95 94 92 86 73 47 39 53 28 69 99 100 100
59 63 67 67 57 52 49 43 37 35 25 16 19 25 30 30 29 29 29 30 30 28 28 28 31 33 34 38 46 52 88 87 84 84 85 87 91 79 83 88 96 96 94
64 67 68 61 55 52 47 38 34 23 14 20 26 28 28 28 29 31 33 34 36 36 35 32 33 41 63 57 56 57 67 91 88 84 84 87 97 97 99 100 100 100 100
68 69 64 59 56 52 38 33 21 16 25 29 29 31 34 34 32 31 32 36 38 37 39 42 39 45 51 62 76 61 63 76 97 90 87 92 97 99 94 93 97 98 100
68 66 62 58 52 38 34 21 17 26 26 28 30 32 33 34 36 38 37 39 44 60 74 90 90 88 90 92 98 99 98 98 99 97 89 84 95 98 97 97 96 94 100
70 66 60 53 38 34 20 18 27 26 29 31 33 34 35 36 38 41 44 46 73 96 99 100 99 98 98 95 94 96 96 97 97 95 91 90 97 97 98 93 93 95 88
68 63 55 39 35 20 23 26 26 30 33 34 36 36 35 36 39 44 48 55 70 100 100 100 100 100 98 96 94 100 98 97 94 98 88 86 99 95 91 91 91 89 86
66 58 40 36 19 24 24 26 31 35 36 38 40 38 39 47 53 59 55 75 75 68 64 94 100 98 99 99 100 100 98 99 99 94 92 100 97 93 91 91 86 90 92

GFSMW_850_rhum_111.txt.gz
RH
58 67 74 72 76 75 58 56 56 51 49 44 45 60 85 100 100 98 86 66 56 61 66 60 54 56 74 71 79 96 99 96 99 97 99 96 93 100 82 53 69 66 63
69 73 76 78 84 89 83 71 58 54 51 52 42 63 86 94 99 99 94 84 75 64 62 60 55 52 86 71 75 90 99 99 94 100 98 100 94 95 85 76 70 67 65
85 85 90 83 84 97 98 96 81 57 53 52 34 74 41 94 99 99 89 74 79 82 83 78 74 81 87 94 86 79 93 98 98 94 100 93 87 78 75 73 71 68 64
90 95 100 97 98 96 99 98 95 81 61 50 35 74 79 92 92 94 96 93 79 78 94 93 93 92 90 92 96 94 90 96 97 100 99 89 83 82 73 69 72 70 66
97 99 99 99 99 100 98 99 87 76 76 71 81 80 88 97 86 95 98 99 99 100 99 100 97 94 89 98 96 93 93 90 90 90 92 94 93 89 92 88 78 74 69
100 99 100 100 99 98 99 98 94 94 79 70 81 79 99 91 94 95 99 94 88 96 99 98 98 100 100 99 99 98 96 98 94 97 99 100 99 97 98 97 87 81 73
99 98 100 98 98 98 100 100 100 98 94 71 70 62 100 93 94 99 87 83 98 99 100 98 99 99 98 98 98 99 100 99 98 98 99 100 100 99 100 100 97 92 84
99 99 100 100 100 98 99 99 100 100 100 73 78 89 99 95 92 100 100 99 100 99 99 99 99 100 97 94 100 100 100 98 98 100 99 97 98 100 100 100 100 100 98
97 98 99 96 98 96 98 98 94 95 98 99 100 94 97 95 92 92 94 95 92 85 80 79 78 81 96 97 98 99 99 99 100 100 100 100 100 99 99 100 100 100 99
98 99 99 96 91 93 94 89 79 65 60 55 53 60 72 83 85 81 73 67 61 63 63 58 53 46 47 52 57 61 69 88 98 98 98 100 100 100 94 99 99 100 100
99 99 99 99 98 93 90 93 95 90 78 77 72 61 50 34 29 28 31 42 57 74 74 67 50 38 40 57 54 38 45 62 64 67 82 78 84 96 100 98 94 100 100
98 98 99 97 97 95 96 91 88 85 78 71 77 75 75 73 78 70 38 28 26 27 28 30 36 33 29 24 32 59 60 28 23 42 46 35 60 75 75 88 100 99 100
93 90 81 78 74 71 66 50 45 38 36 39 35 36 44 46 46 45 38 32 29 24 22 21 20 22 20 17 18 20 21 22 21 21 20 20 20 22 32 43 73 87 96
71 69 64 59 60 65 56 50 40 39 38 36 33 30 27 25 24 22 20 16 12 8 8 7 6 6 6 7 7 6 6 7 10 14 16 18 20 22 23 19 20 29 41
63 65 63 60 59 60 59 48 44 41 38 34 30 28 26 25 19 11 8 8 8 10 11 12 13 12 13 20 14 12 11 10 10 12 13 11 8 8 12 20 21 21 23
61 57 59 64 63 60 56 46 44 43 39 34 31 29 26 16 11 11 14 16 16 17 17 17 17 16 24 38 19 19 16 16 18 17 13 12 11 17 11 32 55 37 30
57 54 58 63 65 63 59 49 46 45 40 32 31 28 17 14 18 22 27 31 29 24 21 20 20 20 23 24 24 26 26 27 32 36 31 26 34 35 46 54 50 36 62
54 54 58 64 67 67 59 49 48 44 37 35 37 30 22 22 25 25 24 22 21 22 25 26 27 26 27 30 33 37 39 55 61 74 65 62 62 54 85 66 54 44 47
52 54 59 65 70 66 59 51 49 43 36 40 28 18 19 22 20 20 22 26 29 31 34 41 46 49 50 69 64 76 91 90 87 81 78 80 83 81 53 53 52 57 55
58 61 67 68 67 64 56 52 48 40 40 33 18 23 28 25 26 30 33 35 40 42 42 41 55 64 66 85 98 99 97 93 85 80 78 77 83 96 94 91 100 99 89
65 64 67 67 67 61 55 51 45 39 32 16 22 22 20 24 26 29 33 40 44 48 53 60 64 67 74 81 93 97 98 98 94 89 86 81 84 96 96 95 95 94 93
61 64 68 67 64 59 55 47 36 31 15 20 18 19 23 25 29 38 43 50 54 55 62 67 59 68 77 83 89 95 97 97 99 93 90 85 85 84 98 98 98 95 96
65 68 68 65 61 58 53 37 31 15 20 17 19 24 26 30 33 41 40 48 56 66 74 76 80 76 65 64 91 95 94 92 92 86 86 88 84 75 67 74 88 87 80
66 66 66 63 60 56 40 32 16 22 18 21 25 27 29 29 35 43 47 54 57 72 82 92 93 90 85 78 87 92 90 92 91 91 96 94 95 87 92 92 78 73 83
68 68 66 62 57 45 34 16 20 18 21 25 28 31 35 38 44 46 54 66 71 85 94 100 100 98 93 88 98 99 95 96 97 97 95 90 83 86 86 88 81 81 78
69 68 66 61 46 36 18 20 19 22 28 30 33 37 38 44 52 63 62 74 85 88 89 98 100 99 100 100 99 98 96 97 98 92 91 81 84 89 91 81 77 83 90

GFSMW_850_rhum_114.txt.gz
RH
69 74 82 83 76 74 76 68 86 88 66 54 51 48 42 35 64 70 82 93 86 75 77 70 71 74 73 64 68 56 80 85 89 94 95 91 96 100 98 88 80 66 60
75 79 85 83 76 81 79 84 76 80 80 59 52 51 46 48 63 62 86 83 97 74 68 60 60 61 60 56 57 58 67 75 93 99 100 100 92 86 91 87 87 90 80
81 87 82 79 75 81 87 93 98 70 64 74 55 52 43 46 41 51 52 81 88 86 62 65 58 60 65 68 60 68 81 78 80 93 98 99 93 82 78 75 72 72 73
84 94 95 85 85 93 95 98 97 93 83 86 72 60 63 51 53 51 56 64 79 84 90 93 78 81 81 78 79 77 84 82 93 92 97 97 91 92 81 74 74 73 72
82 99 97 97 94 98 94 95 92 95 93 70 74 77 73 79 89 96 98 100 97 97 99 99 99 100 100 99 90 95 99 100 96 93 85 93 94 96 96 99 81 76 73
90 98 98 98 92 99 96 94 89 94 88 96 69 65 66 69 89 79 87 98 100 100 91 100 98 98 98 99 98 98 99 98 97 96 95 99 100 98 98 100 99 93 83
90 92 96 98 89 99 99 98 95 99 98 99 88 80 78 82 96 78 72 90 82 99 100 100 98 97 96 95 93 93 92 94 98 99 99 97 96 96 98 100 99 98 91
96 91 90 98 98 96 99 94 93 100 100 98 88 90 84 72 99 100 93 87 98 96 92 100 98 99 90 98 97 93 98 100 100 99 97 100 99 100 99 93 100 100 100
98 99 98 96 98 93 87 86 79 75 90 98 99 97 96 97 94 90 92 91 76 72 73 79 85 87 89 90 90 92 97 99 100 99 100 100 99 100 100 100 100 100 100
93 98 94 99 93 92 94 86 77 69 60 49 48 36 36 35 46 60 68 65 62 60 58 59 57 48 45 44 46 46 47 58 64 70 78 89 93 97 96 98 100 100 100
94 96 98 96 98 99 92 89 88 80 81 79 79 78 76 72 64 46 33 29 29 31 36 52 70 67 64 59 56 52 68 75 59 38 32 49 47 59 58 78 86 87 96
94 89 87 88 90 92 86 67 60 54 46 41 37 38 43 46 44 36 36 32 31 28 24 22 22 22 24 23 21 22 24 24 27 50 65 51 29 31 56 48 28 69 80
91 88 82 74 66 63 54 44 39 39 39 38 35 31 28 25 24 22 20 15 12 9 8 7 8 7 7 7 8 9 7 6 9 12 20 28 36 29 22 22 29 26 33
84 82 74 66 59 61 56 46 42 42 41 38 34 30 27 25 20 12 8 8 9 10 11 12 13 14 14 18 15 15 12 12 12 15 23 27 38 26 17 16 21 24 24
71 67 66 67 60 58 60 55 48 44 44 40 36 31 28 23 12 10 12 16 16 16 15 14 13 14 16 29 23 14 15 14 14 17 24 25 22 21 28 45 78 72 41
61 60 62 61 62 61 59 58 50 46 45 41 36 32 29 15 12 15 18 18 17 17 16 16 17 17 19 21 26 21 17 17 19 20 24 26 28 40 52 58 50 64 74
53 56 60 56 60 64 63 61 54 48 48 43 34 30 21 10 14 18 16 16 16 18 18 20 21 21 22 24 25 26 25 26 30 40 46 52 60 70 70 70 59 40 35
50 54 56 55 60 65 64 62 56 50 49 42 34 31 15 14 17 13 14 18 20 21 22 22 24 24 27 29 34 40 38 38 42 52 67 76 75 77 76 77 58 48 42
50 53 53 56 62 65 66 64 57 52 50 39 33 20 12 17 14 16 19 20 21 23 24 26 29 34 40 60 84 87 75 72 72 80 82 79 79 82 89 88 78 75 54
53 53 54 59 64 66 65 63 55 52 48 36 30 14 19 16 18 20 21 23 26 29 34 38 49 63 69 75 87 96 98 98 95 94 83 72 84 87 95 91 90 93 82
52 58 60 63 66 66 64 61 54 52 42 34 15 18 16 19 22 22 24 26 30 38 46 54 64 64 67 74 86 95 98 98 94 98 92 80 92 93 92 93 93 90 94
57 61 65 67 66 66 64 58 55 47 34 18 16 16 19 23 21 21 21 28 38 46 51 55 51 54 64 67 61 86 96 97 97 94 94 91 89 95 94 92 89 92 96
60 63 65 65 66 66 60 57 49 36 24 17 17 20 23 22 23 24 25 30 41 53 58 67 66 57 56 56 62 67 96 98 100 96 96 99 94 91 95 82 87 91 93
64 64 65 65 65 63 60 54 40 29 16 17 18 23 22 23 24 24 30 39 50 62 70 74 77 74 62 64 72 85 94 92 91 90 89 84 88 90 78 73 70 78 76
69 68 65 66 65 63 60 46 33 15 17 16 22 24 26 28 28 30 37 47 61 83 95 98 100 100 98 92 100 100 98 96 96 96 94 93 84 82 76 76 86 81 72
70 68 67 68 65 62 54 36 16 16 16 20 26 28 27 27 28 34 36 51 71 94 100 100 100 100 100 100 100 99 97 98 99 94 96 90 92 85 93 94 93 92 90

GFSMW_850_rhum_117.txt.gz
RH
62 62 70 72 70 72 74 77 66 58 67 75 72 48 49 46 40 35 37 61 76 71 85 78 78 80 80 79 86 78 72 64 71 82 80 86 84 86 86 91 92 79 61
64 71 72 75 79 76 76 78 74 73 79 82 72 72 56 52 51 43 30 30 48 79 84 80 78 79 86 84 79 68 64 62 60 66 72 77 90 90 84 82 80 78 78
76 76 82 81 82 80 80 82 82 80 79 81 70 66 76 55 55 59 46 38 38 48 82 83 88 84 85 90 82 65 58 57 65 78 77 96 94 81 80 74 75 73 71
77 84 96 82 78 82 85 79 83 83 85 85 73 68 71 74 75 80 76 73 54 52 78 95 94 86 81 75 68 72 78 83 79 87 86 84 88 83 85 83 78 73 74
80 86 91 84 77 88 91 86 83 91 78 76 94 74 72 73 76 77 74 79 91 86 98 96 90 99 89 91 90 81 88 95 94 91 97 92 93 95 98 99 96 86 83
80 84 86 85 79 86 98 89 86 98 90 100 94 85 84 82 76 77 82 82 94 90 81 85 99 92 99 99 98 92 93 95 97 97 99 99 99 98 95 95 96 95 86
82 81 82 83 85 80 84 82 86 92 91 99 97 100 93 91 92 86 100 100 87 88 75 84 91 87 99 99 99 92 91 91 89 86 86 87 98 98 100 100 96 100 96
84 90 90 83 87 87 78 79 82 81 90 98 97 98 100 99 99 93 97 100 100 89 82 86 86 94 100 99 90 86 88 97 99 96 99 100 100 100 100 100 100 98 99
93 97 88 93 84 84 84 82 65 63 62 47 46 41 40 42 56 73 64 70 85 80 81 69 61 67 76 78 81 80 79 84 90 94 97 99 100 100 100 100 99 100 98
87 91 88 84 87 87 89 90 89 84 80 79 77 76 73 68 62 38 32 33 36 54 61 61 57 50 46 44 46 52 56 58 51 47 44 50 52 75 83 83 77 79 100
83 87 91 93 94 94 96 88 83 73 61 50 45 42 42 40 35 30 28 30 29 28 24 23 23 24 31 43 44 47 55 47 43 52 68 71 66 56 43 40 58 69 60
76 80 83 85 82 80 77 63 51 41 39 39 36 32 28 26 24 21 16 12 9 8 8 8 8 8 8 8 9 11 13 12 10 11 16 16 25 53 70 79 69 30 56
73 68 73 72 69 63 60 49 42 41 42 40 37 33 28 24 20 12 6 7 9 10 11 13 13 12 12 12 12 12 13 12 12 14 14 17 17 15 19 21 38 62 42
63 65 68 70 70 64 60 56 47 43 44 44 43 38 30 24 15 6 7 10 11 11 11 13 14 14 15 21 16 14 13 13 14 16 21 23 27 28 26 33 46 59 50
69 68 65 66 69 64 60 59 56 48 46 46 46 40 31 26 11 9 13 13 9 9 10 11 12 13 14 16 17 21 21 20 20 22 26 28 32 38 48 64 61 56 55
58 61 62 64 68 66 61 60 59 55 48 47 46 40 32 24 10 14 15 13 16 19 20 22 23 25 26 28 29 30 24 23 23 26 37 53 66 72 74 71 64 60 50
52 56 56 59 62 62 60 62 62 60 52 49 47 40 32 16 14 18 15 17 19 21 22 23 24 24 27 28 28 30 34 35 36 41 46 57 69 76 80 80 78 66 54
50 52 55 56 60 58 60 64 64 62 54 51 48 39 30 12 18 14 18 21 22 23 24 25 26 28 31 36 40 52 50 46 46 46 54 66 71 76 82 86 80 69 63
48 50 53 55 57 56 59 64 66 64 56 52 49 35 18 16 16 17 20 20 21 24 27 32 33 36 40 50 61 89 83 78 76 75 72 70 59 60 80 94 91 81 71
43 50 53 55 55 58 63 66 66 63 57 54 44 33 15 16 15 20 20 21 23 25 29 32 38 44 49 58 68 90 93 91 87 80 85 84 78 71 97 97 94 89 82
44 50 56 57 57 61 64 66 65 62 56 52 38 18 16 15 19 18 19 20 21 24 29 36 41 46 51 55 62 66 94 95 99 99 100 95 90 95 94 91 94 96 87
54 52 58 61 63 66 66 65 64 58 55 42 28 15 15 18 21 21 23 24 26 28 36 42 44 52 56 60 60 64 99 98 96 95 95 92 89 100 99 99 97 98 95
56 56 60 64 66 66 65 66 62 58 50 35 16 17 18 23 24 26 26 26 29 33 41 51 52 56 58 59 66 72 82 99 100 95 94 98 99 94 94 77 77 95 89
54 57 61 64 65 65 66 64 60 56 39 20 17 18 21 23 26 27 26 27 33 39 48 61 68 67 71 76 82 91 93 90 88 86 88 93 98 90 77 74 69 72 82
58 61 63 64 64 65 65 63 60 45 28 16 17 18 23 26 26 25 24 26 37 56 77 95 100 100 97 95 99 97 95 94 97 98 93 96 92 84 76 78 74 78 91
60 66 68 67 66 66 65 62 55 37 16 17 17 22 26 28 27 24 22 34 40 48 60 80 99 99 99 99 100 99 100 100 100 96 97 90 90 97 98 99 98 100 100

GFSMW_850_rhum_120.txt.gz
RH
55 57 56 62 65 73 72 71 68 62 65 67 60 52 50 44 40 44 46 47 44 50 50 69 76 74 91 87 84 83 83 84 84 90 81 75 76 85 81 80 85 89 90
55 57 64 70 76 78 76 79 78 78 76 67 68 76 64 61 68 59 51 55 45 36 32 32 49 72 89 87 83 84 87 85 83 71 67 79 76 74 74 83 86 85 82
61 70 71 79 80 81 84 84 79 83 84 65 68 60 54 63 66 67 66 59 58 53 49 35 35 55 90 96 96 92 86 87 77 71 69 88 81 75 73 69 65 69 71
70 74 76 77 82 81 87 82 80 81 80 79 79 77 74 80 92 84 93 85 74 80 94 81 56 66 80 97 97 99 99 88 78 83 79 88 95 91 84 76 72 70 70
72 75 80 80 85 83 88 85 80 78 78 77 73 76 82 86 88 90 85 81 83 96 100 99 80 81 78 84 97 99 99 91 80 81 85 93 99 98 99 99 90 91 84
69 70 80 82 84 80 81 77 78 75 77 85 83 78 95 96 92 91 91 90 97 99 99 98 91 98 89 83 85 92 100 100 94 92 99 95 98 98 100 100 97 90 90
62 72 76 78 81 77 74 75 75 72 76 78 78 72 77 69 89 90 98 98 97 100 100 97 89 97 100 93 70 81 100 99 98 96 96 93 96 98 99 97 99 100 98
66 65 69 75 77 75 76 75 72 69 70 60 65 55 64 72 78 56 71 79 72 66 74 94 89 90 95 94 87 83 91 100 97 100 94 91 98 99 98 98 99 98 96
64 59 63 74 77 79 82 84 83 81 77 78 81 83 77 68 60 48 39 33 36 35 54 66 77 73 78 85 85 84 84 76 84 88 89 92 96 97 98 99 99 99 98
57 57 64 69 76 79 82 85 82 81 79 74 63 54 48 41 35 30 25 25 26 25 24 23 30 44 44 53 58 61 60 59 65 64 58 51 48 52 57 59 58 75 83
53 55 60 68 75 80 88 83 80 70 46 40 39 36 31 27 25 21 16 10 9 8 8 9 9 10 11 12 14 18 20 20 23 24 28 35 45 60 70 71 72 62 52
48 54 58 67 72 75 77 73 60 43 40 42 40 37 33 28 24 17 10 10 12 15 11 9 9 9 10 10 11 11 13 12 10 11 11 11 12 17 18 19 21 36 68
48 53 60 66 68 67 63 57 49 42 42 43 43 41 36 30 25 13 7 10 14 14 14 17 14 12 11 10 11 11 12 12 11 14 17 20 26 27 26 26 24 22 36
50 54 59 60 64 66 63 59 58 51 45 45 45 45 41 33 26 11 9 13 12 12 13 14 15 18 22 24 21 19 21 19 17 16 20 22 26 30 34 33 33 38 37
48 52 59 58 58 68 68 64 60 59 53 47 47 48 45 36 28 10 13 13 13 15 16 17 18 20 22 24 26 29 26 26 25 27 32 38 45 52 58 58 59 53 52
40 42 49 60 59 62 65 66 61 60 60 55 50 49 46 37 26 11 14 11 16 18 20 21 21 22 22 20 22 24 28 30 29 31 39 49 64 71 72 73 72 66 68
43 45 48 52 56 57 60 64 61 61 62 60 54 50 47 37 20 14 13 17 19 20 22 23 25 27 31 35 37 42 51 50 48 46 44 46 59 69 71 80 86 84 76
43 49 49 50 54 58 62 65 62 63 64 63 56 52 49 37 15 16 16 22 23 24 26 29 31 32 36 38 42 63 61 61 57 57 59 60 60 56 62 82 96 95 86
34 36 40 46 51 57 60 63 61 64 65 65 58 53 47 34 15 15 20 22 23 25 27 31 35 36 39 42 51 66 60 58 56 59 66 71 72 68 84 94 100 97 83
41 40 38 37 52 57 61 60 62 65 67 65 58 54 41 23 16 15 20 20 22 22 23 25 32 39 42 45 49 49 49 48 54 61 80 88 87 97 97 96 90 88 73
41 45 50 48 53 56 57 61 65 67 66 63 57 52 38 17 16 19 20 22 23 22 23 24 32 41 47 48 51 54 57 68 84 92 89 84 83 98 98 100 100 100 93
43 48 52 52 56 60 62 65 67 67 65 60 56 43 23 17 17 22 23 25 25 25 25 28 34 46 52 54 54 62 76 99 100 97 92 87 94 96 91 95 95 100 100
45 52 58 57 60 65 66 68 67 65 63 59 52 35 17 17 23 26 29 27 27 29 32 34 40 49 58 58 65 74 84 94 100 95 95 98 89 94 94 87 93 99 91
43 50 59 60 60 66 68 66 66 66 61 58 42 20 17 20 26 30 30 29 32 32 34 40 46 56 64 66 76 85 91 91 91 86 86 88 98 94 85 78 75 78 80
43 46 58 62 62 66 68 66 67 64 60 48 29 18 19 24 28 30 30 30 33 38 42 49 65 64 64 83 99 100 98 95 93 100 97 91 84 70 76 82 85 92 100
44 48 58 64 68 69 68 67 66 63 58 41 18 19 21 26 29 30 30 33 35 42 46 51 63 66 81 99 100 100 99 97 97 96 88 71 69 71 84 88 92 81 79